KLM736 TNCC-EHAM

Flight info

Callsign KLM736
Flight time 10h 54m
Altitude 31000
Route BONAX1K BONAX DCT ALDIT DCT OLEDA/N0497F330 DCT 14N057W DCT BOXIT DCT 15N050W 1534N04600W 16N043W 1630N03900W 1645N03500W 1654N03130W/N0488F350 17N028W DCT DIMKI DCT IPERA N873 LIMAL DCT UDATI DCT SAMAR DCT BEXAL DCT TOSDI/N0488F370 DCT ZMR DCT NUBLO DCT RONSI DCT DELOG DCT DIDIG DCT USODA DCT ERCUT DCT DITAL UN873 BAZOS DCT BELDI DCT VEKIN DCT ADUTO N873 FERDI Y18 DENUT
Aircraft B77W/H-SDE1E2E3FGHIJ2J3J4J5M1RWXY/LB1D1

Departure

Time 2026-04-28 18:00
Airport Hato International Airport (TNCC)

Arrival

Time 2026-04-29 04:55
Airport Amsterdam Airport Schiphol (EHAM)
Time Latitude Longitude Altitude Speed Heading
2026-04-28 17:45 12.18577 -68.95873 48 ft 0 kts 192°
2026-04-28 17:49 12.18580 -68.95873 48 ft 2 kts 192°
2026-04-28 17:49 12.18596 -68.95869 48 ft 2 kts 192°
2026-04-28 17:49 12.18613 -68.95865 46 ft 2 kts 194°
2026-04-28 17:49 12.18628 -68.95860 45 ft 2 kts 197°
2026-04-28 17:50 12.18644 -68.95855 43 ft 2 kts 199°
2026-04-28 17:50 12.18660 -68.95849 44 ft 2 kts 205°
2026-04-28 17:50 12.18674 -68.95841 44 ft 2 kts 224°
2026-04-28 17:50 12.18681 -68.95827 43 ft 1 kts 284°
2026-04-28 17:51 12.18680 -68.95826 43 ft 0 kts 284°
2026-04-28 17:52 12.18682 -68.95833 41 ft 3 kts 282°
2026-04-28 17:53 12.18689 -68.95868 46 ft 7 kts 282°
2026-04-28 17:53 12.18703 -68.95932 47 ft 11 kts 282°
2026-04-28 17:53 12.18718 -68.96007 47 ft 11 kts 282°
2026-04-28 17:53 12.18734 -68.96082 47 ft 11 kts 282°
2026-04-28 17:54 12.18749 -68.96155 47 ft 11 kts 282°
2026-04-28 17:54 12.18765 -68.96230 47 ft 11 kts 282°
2026-04-28 17:54 12.18780 -68.96305 47 ft 11 kts 282°
2026-04-28 17:54 12.18796 -68.96379 47 ft 11 kts 282°
2026-04-28 17:55 12.18811 -68.96454 47 ft 11 kts 282°
2026-04-28 17:55 12.18826 -68.96528 47 ft 11 kts 282°
2026-04-28 17:55 12.18842 -68.96602 46 ft 11 kts 282°
2026-04-28 17:55 12.18858 -68.96677 46 ft 11 kts 282°
2026-04-28 17:56 12.18874 -68.96751 46 ft 11 kts 282°
2026-04-28 17:56 12.18889 -68.96824 46 ft 11 kts 282°
2026-04-28 17:56 12.18904 -68.96899 45 ft 11 kts 282°
2026-04-28 17:56 12.18919 -68.96974 45 ft 11 kts 283°
2026-04-28 17:57 12.18936 -68.97048 45 ft 11 kts 283°
2026-04-28 17:57 12.18952 -68.97122 45 ft 11 kts 282°
2026-04-28 17:57 12.18967 -68.97197 45 ft 11 kts 282°
2026-04-28 17:57 12.18982 -68.97271 44 ft 11 kts 282°
2026-04-28 17:58 12.18998 -68.97345 44 ft 11 kts 282°
2026-04-28 17:58 12.19013 -68.97419 44 ft 11 kts 282°
2026-04-28 17:58 12.19028 -68.97494 44 ft 11 kts 282°
2026-04-28 17:58 12.19045 -68.97567 44 ft 11 kts 292°
2026-04-28 17:59 12.19105 -68.97605 44 ft 11 kts 358°
2026-04-28 17:59 12.19175 -68.97583 44 ft 11 kts 21°
2026-04-28 17:59 12.19218 -68.97525 44 ft 11 kts 88°
2026-04-28 17:59 12.19190 -68.97380 45 ft 48 kts 103°
2026-04-28 18:00 12.19063 -68.96795 45 ft 120 kts 102°
2026-04-28 18:00 12.18839 -68.95740 46 ft 181 kts 102°
2026-04-28 18:00 12.18545 -68.94360 303 ft 201 kts 102°
2026-04-28 18:00 12.18259 -68.92956 986 ft 205 kts 102°
2026-04-28 18:01 12.17956 -68.91520 1684 ft 207 kts 103°
2026-04-28 18:01 12.17634 -68.90001 2071 ft 233 kts 103°
2026-04-28 18:01 12.17378 -68.88286 2437 ft 256 kts 96°
2026-04-28 18:01 12.17216 -68.86446 3245 ft 264 kts 95°
2026-04-28 18:02 12.17067 -68.84559 4131 ft 268 kts 95°
2026-04-28 18:02 12.16914 -68.82653 4915 ft 270 kts 95°
2026-04-28 18:02 12.16753 -68.80726 5635 ft 273 kts 95°
2026-04-28 18:02 12.16585 -68.78779 6344 ft 276 kts 95°
2026-04-28 18:03 12.16412 -68.76815 7045 ft 279 kts 96°
2026-04-28 18:03 12.16234 -68.74823 7741 ft 282 kts 96°
2026-04-28 18:03 12.16053 -68.72813 8421 ft 285 kts 96°
2026-04-28 18:03 12.15872 -68.70812 9076 ft 288 kts 96°
2026-04-28 18:04 12.15685 -68.68750 9734 ft 291 kts 96°
2026-04-28 18:04 12.15497 -68.66700 10338 ft 296 kts 96°
2026-04-28 18:04 12.15299 -68.64538 10566 ft 316 kts 96°
2026-04-28 18:04 12.15089 -68.62243 10760 ft 337 kts 96°
2026-04-28 18:05 12.14862 -68.59770 10941 ft 359 kts 96°
2026-04-28 18:05 12.14704 -68.58051 11128 ft 370 kts 96°
2026-04-28 18:05 12.14379 -68.54505 11857 ft 383 kts 96°
2026-04-28 18:05 12.14127 -68.51765 12549 ft 387 kts 96°
2026-04-28 18:06 12.13875 -68.49035 13292 ft 390 kts 96°
2026-04-28 18:06 12.13617 -68.46240 14040 ft 394 kts 96°
2026-04-28 18:06 12.13363 -68.43464 14726 ft 398 kts 96°
2026-04-28 18:06 12.13104 -68.40619 15394 ft 402 kts 96°
2026-04-28 18:07 12.12843 -68.37752 16060 ft 406 kts 96°
2026-04-28 18:07 12.12580 -68.34869 16706 ft 410 kts 96°
2026-04-28 18:07 12.12314 -68.31952 17343 ft 414 kts 96°
2026-04-28 18:07 12.12049 -68.29048 17953 ft 418 kts 96°
2026-04-28 18:08 12.11775 -68.26051 18570 ft 421 kts 96°
2026-04-28 18:08 12.11501 -68.23060 19164 ft 425 kts 96°
2026-04-28 18:08 12.11226 -68.20069 19734 ft 429 kts 96°
2026-04-28 18:08 12.10943 -68.16986 20316 ft 433 kts 96°
2026-04-28 18:09 12.10663 -68.13937 20857 ft 436 kts 96°
2026-04-28 18:09 12.10376 -68.10827 21391 ft 440 kts 96°
2026-04-28 18:09 12.10090 -68.07717 21902 ft 443 kts 96°
2026-04-28 18:09 12.09800 -68.04582 22408 ft 446 kts 96°
2026-04-28 18:10 12.09508 -68.01417 22881 ft 450 kts 96°
2026-04-28 18:10 12.09212 -67.98215 23365 ft 453 kts 96°
2026-04-28 18:10 12.08912 -67.94982 23834 ft 456 kts 96°
2026-04-28 18:10 12.08615 -67.91778 24278 ft 459 kts 96°
2026-04-28 18:11 12.08313 -67.88515 24724 ft 462 kts 96°
2026-04-28 18:11 12.08006 -67.85218 25155 ft 465 kts 96°
2026-04-28 18:11 12.07844 -67.81909 25549 ft 469 kts 86°
2026-04-28 18:11 12.08285 -67.78620 25935 ft 471 kts 79°
2026-04-28 18:12 12.08935 -67.75321 26336 ft 474 kts 78°
2026-04-28 18:12 12.09627 -67.72042 26704 ft 477 kts 78°
2026-04-28 18:12 12.10329 -67.68693 27067 ft 480 kts 78°
2026-04-28 18:12 12.11002 -67.65374 27418 ft 482 kts 79°
2026-04-28 18:13 12.11657 -67.62008 27765 ft 485 kts 79°
2026-04-28 18:13 12.12298 -67.58616 28100 ft 487 kts 79°
2026-04-28 18:13 12.12929 -67.55203 28418 ft 490 kts 79°
2026-04-28 18:13 12.13559 -67.51760 28726 ft 492 kts 79°
2026-04-28 18:14 12.14188 -67.48306 29026 ft 494 kts 79°
2026-04-28 18:14 12.14808 -67.44900 29401 ft 493 kts 79°
2026-04-28 18:14 12.15435 -67.41456 29832 ft 492 kts 79°
2026-04-28 18:14 12.16061 -67.38025 30245 ft 490 kts 79°
2026-04-28 18:15 12.16686 -67.34601 30630 ft 489 kts 79°
2026-04-28 18:15 12.17312 -67.31172 30930 ft 490 kts 79°
2026-04-28 18:15 12.18564 -67.24310 30997 ft 493 kts 79°
2026-04-28 18:16 12.19815 -67.17442 30995 ft 487 kts 79°
2026-04-28 18:16 12.21054 -67.10628 31006 ft 487 kts 79°
2026-04-28 18:17 12.22289 -67.03826 31004 ft 488 kts 79°
2026-04-28 18:17 12.23520 -66.97039 31002 ft 488 kts 79°
2026-04-28 18:18 12.24763 -66.90177 31003 ft 489 kts 79°
2026-04-28 18:18 12.25785 -66.84525 31002 ft 489 kts 79°
2026-04-28 18:19 12.27226 -66.76543 31003 ft 490 kts 79°
2026-04-28 18:19 12.28464 -66.69677 31003 ft 490 kts 79°
2026-04-28 18:20 12.29697 -66.62829 30998 ft 490 kts 79°
2026-04-28 18:20 12.30921 -66.56021 30998 ft 489 kts 79°
2026-04-28 18:21 12.32154 -66.49150 31002 ft 489 kts 80°
2026-04-28 18:21 12.33382 -66.42302 31002 ft 489 kts 80°
2026-04-28 18:22 12.34607 -66.35455 30999 ft 489 kts 80°
2026-04-28 18:22 12.35822 -66.28656 31002 ft 489 kts 80°
2026-04-28 18:23 12.37042 -66.21815 30997 ft 489 kts 80°
2026-04-28 18:23 12.38263 -66.14964 31001 ft 489 kts 80°
2026-04-28 18:24 12.38871 -66.11548 29800 ft 489 kts 81°
2026-04-28 18:24 12.39276 -66.09276 29994 ft 489 kts 81°
2026-04-28 18:24 12.40090 -66.04693 30301 ft 490 kts 81°
2026-04-28 18:24 12.40699 -66.01258 30533 ft 490 kts 81°
2026-04-28 18:25 12.41300 -65.97868 30710 ft 491 kts 81°
2026-04-28 18:25 12.41919 -65.94380 30838 ft 494 kts 81°
2026-04-28 18:26 12.43770 -65.83914 30961 ft 504 kts 81°
2026-04-28 18:26 12.45019 -65.76849 30964 ft 504 kts 81°
2026-04-28 18:27 12.46262 -65.69809 30964 ft 504 kts 81°
2026-04-28 18:27 12.47504 -65.62761 30967 ft 503 kts 81°
2026-04-28 18:28 12.48745 -65.55705 30963 ft 502 kts 81°
2026-04-28 18:28 12.49979 -65.48673 30970 ft 501 kts 81°
2026-04-28 18:29 12.51205 -65.41684 30970 ft 500 kts 82°
2026-04-28 18:29 12.52432 -65.34671 30969 ft 500 kts 82°
2026-04-28 18:30 12.53653 -65.27680 30974 ft 500 kts 82°
2026-04-28 18:30 12.54880 -65.20646 30968 ft 501 kts 82°
2026-04-28 18:31 12.56099 -65.13651 30972 ft 501 kts 82°
2026-04-28 18:31 12.57318 -65.06640 30975 ft 502 kts 82°
2026-04-28 18:32 12.58545 -64.99574 30974 ft 502 kts 82°
2026-04-28 18:32 12.59767 -64.92529 30967 ft 505 kts 82°
2026-04-28 18:33 12.60998 -64.85415 30980 ft 509 kts 82°
2026-04-28 18:33 12.62229 -64.78289 30981 ft 512 kts 82°
2026-04-28 18:34 12.63473 -64.71081 30978 ft 514 kts 82°
2026-04-28 18:34 12.64717 -64.63858 30970 ft 513 kts 82°
2026-04-28 18:35 12.65952 -64.56681 30970 ft 512 kts 82°
2026-04-28 18:35 12.67177 -64.49544 30970 ft 510 kts 82°
2026-04-28 18:36 12.68405 -64.42380 30972 ft 509 kts 82°
2026-04-28 18:36 12.69626 -64.35242 30972 ft 508 kts 82°
2026-04-28 18:37 12.70839 -64.28139 30972 ft 508 kts 82°
2026-04-28 18:37 12.71854 -64.22190 30974 ft 508 kts 82°
2026-04-28 18:38 12.73065 -64.15075 30974 ft 508 kts 82°
2026-04-28 18:38 12.74280 -64.07931 30974 ft 509 kts 82°
2026-04-28 18:39 12.75495 -64.00772 30974 ft 509 kts 82°
2026-04-28 18:39 12.76708 -63.93615 30976 ft 510 kts 82°
2026-04-28 18:40 12.77912 -63.86494 30974 ft 510 kts 82°
2026-04-28 18:40 12.79118 -63.79356 30976 ft 510 kts 82°
2026-04-28 18:41 12.80342 -63.72173 30976 ft 510 kts 82°
2026-04-28 18:41 12.81601 -63.65071 30975 ft 510 kts 81°
2026-04-28 18:42 12.82877 -63.57916 30973 ft 509 kts 81°
2026-04-28 18:42 12.84142 -63.50769 30976 ft 509 kts 81°
2026-04-28 18:43 12.85397 -63.43646 30976 ft 509 kts 82°
2026-04-28 18:43 12.86651 -63.36507 30978 ft 509 kts 82°
2026-04-28 18:44 12.87901 -63.29376 30979 ft 509 kts 82°
2026-04-28 18:44 12.89782 -63.18638 30980 ft 509 kts 82°
2026-04-28 18:45 12.91025 -63.11520 30979 ft 509 kts 82°
2026-04-28 18:45 12.92277 -63.04346 30980 ft 509 kts 82°
2026-04-28 18:46 12.93519 -62.97218 30983 ft 509 kts 82°
2026-04-28 18:46 12.94757 -62.90097 30982 ft 509 kts 82°
2026-04-28 18:47 12.95994 -62.82968 30982 ft 509 kts 82°
2026-04-28 18:47 12.97237 -62.75794 31000 ft 512 kts 82°
2026-04-28 18:48 12.97856 -62.72218 31143 ft 514 kts 82°
2026-04-28 18:48 12.98482 -62.68599 31451 ft 513 kts 81°
2026-04-28 18:48 12.99107 -62.64982 31797 ft 511 kts 81°
2026-04-28 18:48 12.99720 -62.61432 32068 ft 511 kts 81°
2026-04-28 18:49 13.00342 -62.57827 32291 ft 512 kts 81°
2026-04-28 18:49 13.00753 -62.55439 32442 ft 513 kts 81°
2026-04-28 18:49 13.01576 -62.50660 32791 ft 513 kts 81°
2026-04-28 18:49 13.02199 -62.47042 32911 ft 514 kts 81°
2026-04-28 18:50 13.03440 -62.39822 32976 ft 514 kts 81°
2026-04-28 18:50 13.04677 -62.32610 32973 ft 512 kts 81°
2026-04-28 18:51 13.05902 -62.25458 32975 ft 510 kts 81°
2026-04-28 18:51 13.07128 -62.18288 32982 ft 510 kts 81°
2026-04-28 18:52 13.08351 -62.11117 32984 ft 510 kts 81°
2026-04-28 18:52 13.09575 -62.03935 32981 ft 511 kts 81°
2026-04-28 18:53 13.10790 -61.96788 32982 ft 512 kts 81°
2026-04-28 18:53 13.12014 -61.89580 32984 ft 513 kts 81°
2026-04-28 18:54 13.13239 -61.82352 32982 ft 513 kts 81°
2026-04-28 18:54 13.14455 -61.75165 32982 ft 514 kts 81°
2026-04-28 18:55 13.15479 -61.69104 32983 ft 514 kts 81°
2026-04-28 18:55 13.16897 -61.60693 32984 ft 514 kts 81°
2026-04-28 18:56 13.18112 -61.53478 32984 ft 514 kts 81°
2026-04-28 18:56 13.19322 -61.46276 33008 ft 513 kts 81°
2026-04-28 18:57 13.20527 -61.39091 32990 ft 509 kts 81°
2026-04-28 18:57 13.21725 -61.31938 32987 ft 505 kts 81°
2026-04-28 18:58 13.22908 -61.24858 32994 ft 503 kts 81°
2026-04-28 18:58 13.24086 -61.17792 32994 ft 501 kts 81°
2026-04-28 18:59 13.25255 -61.10775 32992 ft 501 kts 82°
2026-04-28 18:59 13.26503 -61.03725 32998 ft 503 kts 80°
2026-04-28 19:00 13.27869 -60.96667 32993 ft 505 kts 80°
2026-04-28 19:00 13.29248 -60.89570 32993 ft 506 kts 80°
2026-04-28 19:01 13.30600 -60.82497 32988 ft 507 kts 80°
2026-04-28 19:01 13.31946 -60.75394 32989 ft 508 kts 80°
2026-04-28 19:02 13.33292 -60.68269 32989 ft 508 kts 80°
2026-04-28 19:02 13.34628 -60.61185 32975 ft 508 kts 80°
2026-04-28 19:03 13.35975 -60.54044 32976 ft 508 kts 80°
2026-04-28 19:03 13.37314 -60.46931 32982 ft 508 kts 80°
2026-04-28 19:04 13.38648 -60.39834 32979 ft 509 kts 80°
2026-04-28 19:04 13.39989 -60.32689 32978 ft 509 kts 80°
2026-04-28 19:05 13.41330 -60.25529 32980 ft 510 kts 80°
2026-04-28 19:05 13.42663 -60.18403 32975 ft 510 kts 80°
2026-04-28 19:06 13.43779 -60.12425 32974 ft 510 kts 80°
2026-04-28 19:06 13.45334 -60.04088 32973 ft 510 kts 80°
2026-04-28 19:07 13.46661 -59.96958 32975 ft 510 kts 80°
2026-04-28 19:07 13.47993 -59.89789 32979 ft 510 kts 80°
2026-04-28 19:08 13.49315 -59.82661 32980 ft 510 kts 80°
2026-04-28 19:08 13.50644 -59.75486 32980 ft 509 kts 80°
2026-04-28 19:09 13.51966 -59.68337 32983 ft 509 kts 80°
2026-04-28 19:09 13.53280 -59.61221 32986 ft 509 kts 80°
2026-04-28 19:10 13.54598 -59.54070 32986 ft 509 kts 80°
2026-04-28 19:10 13.55917 -59.46900 32986 ft 509 kts 80°
2026-04-28 19:11 13.57224 -59.39787 32988 ft 509 kts 80°
2026-04-28 19:11 13.58537 -59.32628 32983 ft 509 kts 80°
2026-04-28 19:12 13.59839 -59.25516 32987 ft 509 kts 81°
2026-04-28 19:12 13.61141 -59.18393 32989 ft 509 kts 81°
2026-04-28 19:13 13.62443 -59.11257 32985 ft 508 kts 81°
2026-04-28 19:13 13.63745 -59.04108 32983 ft 508 kts 81°
2026-04-28 19:14 13.65047 -58.96953 32976 ft 509 kts 81°
2026-04-28 19:14 13.66348 -58.89784 32996 ft 510 kts 81°
2026-04-28 19:15 13.67649 -58.82609 32992 ft 511 kts 81°
2026-04-28 19:15 13.68729 -58.76640 32991 ft 511 kts 81°
2026-04-28 19:16 13.70246 -58.68241 32985 ft 511 kts 81°
2026-04-28 19:16 13.71540 -58.61068 32985 ft 510 kts 81°
2026-04-28 19:17 13.72829 -58.53909 32989 ft 509 kts 81°
2026-04-28 19:17 13.74114 -58.46760 32986 ft 509 kts 82°
2026-04-28 19:18 13.75394 -58.39622 32986 ft 508 kts 82°
2026-04-28 19:18 13.76670 -58.32495 32987 ft 507 kts 82°
2026-04-28 19:19 13.77945 -58.25364 32987 ft 506 kts 82°
2026-04-28 19:19 13.79215 -58.18253 32984 ft 506 kts 82°
2026-04-28 19:20 13.80485 -58.11120 32990 ft 505 kts 82°
2026-04-28 19:20 13.81745 -58.04041 32989 ft 505 kts 82°
2026-04-28 19:21 13.83003 -57.96956 32988 ft 505 kts 82°
2026-04-28 19:21 13.84265 -57.89833 32990 ft 505 kts 82°
2026-04-28 19:22 13.85107 -57.85077 32990 ft 505 kts 82°
2026-04-28 19:22 13.86782 -57.75600 32985 ft 505 kts 82°
2026-04-28 19:23 13.88028 -57.68531 32985 ft 504 kts 82°
2026-04-28 19:23 13.89272 -57.61463 32992 ft 504 kts 82°
2026-04-28 19:24 13.90526 -57.54329 32993 ft 504 kts 82°
2026-04-28 19:24 13.91763 -57.47278 32990 ft 503 kts 82°
2026-04-28 19:25 13.93003 -57.40193 32990 ft 503 kts 82°
2026-04-28 19:25 13.94241 -57.33113 32991 ft 502 kts 82°
2026-04-28 19:26 13.95475 -57.26044 32987 ft 502 kts 82°
2026-04-28 19:26 13.96708 -57.18961 32989 ft 502 kts 82°
2026-04-28 19:27 13.97938 -57.11888 32989 ft 502 kts 82°
2026-04-28 19:27 13.99168 -57.04800 32992 ft 502 kts 82°
2026-04-28 19:28 14.00368 -56.97764 32991 ft 502 kts 83°
2026-04-28 19:28 14.01387 -56.90657 32990 ft 501 kts 84°
2026-04-28 19:29 14.02182 -56.84740 32995 ft 501 kts 84°
2026-04-28 19:29 14.03317 -56.76437 32993 ft 501 kts 83°
2026-04-28 19:30 14.04307 -56.69345 32991 ft 502 kts 83°
2026-04-28 19:30 14.05303 -56.62234 32994 ft 502 kts 83°
2026-04-28 19:31 14.06300 -56.55103 32995 ft 502 kts 83°
2026-04-28 19:31 14.07288 -56.48011 32995 ft 502 kts 83°
2026-04-28 19:32 14.08278 -56.40886 32995 ft 502 kts 83°
2026-04-28 19:32 14.09100 -56.34950 32993 ft 502 kts 83°
2026-04-28 19:33 14.10249 -56.26647 32992 ft 503 kts 83°
2026-04-28 19:33 14.11232 -56.19522 32992 ft 502 kts 83°
2026-04-28 19:34 14.12049 -56.13590 32992 ft 502 kts 83°
2026-04-28 19:34 14.13028 -56.06465 32991 ft 502 kts 83°
2026-04-28 19:35 14.14007 -55.99328 32991 ft 502 kts 83°
2026-04-28 19:35 14.14983 -55.92198 32992 ft 502 kts 83°
2026-04-28 19:36 14.15951 -55.85102 32992 ft 502 kts 83°
2026-04-28 19:36 14.16922 -55.77977 32995 ft 501 kts 83°
2026-04-28 19:37 14.17729 -55.72038 32993 ft 501 kts 84°
2026-04-28 19:37 14.18848 -55.63786 32994 ft 501 kts 84°
2026-04-28 19:38 14.19812 -55.56662 32994 ft 501 kts 84°
2026-04-28 19:38 14.20768 -55.49578 32997 ft 501 kts 84°
2026-04-28 19:39 14.21726 -55.42467 32995 ft 501 kts 84°
2026-04-28 19:39 14.22681 -55.35363 32996 ft 501 kts 84°
2026-04-28 19:40 14.23637 -55.28230 32998 ft 501 kts 84°
2026-04-28 19:40 14.24589 -55.21112 33000 ft 501 kts 84°
2026-04-28 19:41 14.25533 -55.14041 32999 ft 501 kts 84°
2026-04-28 19:41 14.26483 -55.06904 33001 ft 501 kts 84°
2026-04-28 19:42 14.27429 -54.99782 33001 ft 501 kts 83°
2026-04-28 19:42 14.28481 -54.92705 33001 ft 501 kts 82°
2026-04-28 19:43 14.29618 -54.85602 33003 ft 501 kts 82°
2026-04-28 19:43 14.30740 -54.78541 33000 ft 501 kts 82°
2026-04-28 19:44 14.31848 -54.71446 32998 ft 501 kts 82°
2026-04-28 19:44 14.32945 -54.64357 32998 ft 501 kts 82°
2026-04-28 19:45 14.34046 -54.57222 32998 ft 501 kts 82°
2026-04-28 19:45 14.35136 -54.50155 33004 ft 501 kts 82°
2026-04-28 19:46 14.36225 -54.43079 33004 ft 501 kts 82°
2026-04-28 19:46 14.37314 -54.35991 33002 ft 502 kts 82°
2026-04-28 19:47 14.38409 -54.28850 33004 ft 502 kts 82°
2026-04-28 19:47 14.39496 -54.21751 33002 ft 502 kts 82°
2026-04-28 19:48 14.40578 -54.14661 33003 ft 503 kts 82°
2026-04-28 19:48 14.41667 -54.07518 33004 ft 503 kts 82°
2026-04-28 19:49 14.42752 -54.00383 33003 ft 504 kts 82°
2026-04-28 19:49 14.43836 -53.93235 33001 ft 504 kts 82°
2026-04-28 19:50 14.45457 -53.82526 33003 ft 505 kts 82°
2026-04-28 19:51 14.46534 -53.75396 33004 ft 505 kts 82°
2026-04-28 19:51 14.47615 -53.68221 33009 ft 505 kts 82°
2026-04-28 19:52 14.48692 -53.61051 33009 ft 505 kts 82°
2026-04-28 19:52 14.49764 -53.53906 33007 ft 505 kts 82°
2026-04-28 19:53 14.50834 -53.46762 33010 ft 505 kts 82°
2026-04-28 19:53 14.51899 -53.39627 33009 ft 505 kts 82°
2026-04-28 19:54 14.52969 -53.32447 33006 ft 504 kts 82°
2026-04-28 19:54 14.54030 -53.25316 33008 ft 504 kts 82°
2026-04-28 19:55 14.55091 -53.18170 33009 ft 504 kts 82°
2026-04-28 19:55 14.56157 -53.10975 33010 ft 504 kts 82°
2026-04-28 19:56 14.57212 -53.03835 33009 ft 504 kts 82°
2026-04-28 19:56 14.58264 -52.96702 33009 ft 504 kts 82°
2026-04-28 19:57 14.59319 -52.89528 33011 ft 504 kts 82°
2026-04-28 19:57 14.60366 -52.82400 33008 ft 505 kts 82°
2026-04-28 19:58 14.61419 -52.75214 33010 ft 505 kts 82°
2026-04-28 19:58 14.62461 -52.68083 33010 ft 505 kts 82°
2026-04-28 19:59 14.63504 -52.60934 33008 ft 505 kts 82°
2026-04-28 19:59 14.64552 -52.53737 33008 ft 505 kts 82°
2026-04-28 20:00 14.65592 -52.46571 33010 ft 505 kts 82°
2026-04-28 20:00 14.66630 -52.39413 33008 ft 505 kts 82°
2026-04-28 20:01 14.67661 -52.32285 33009 ft 505 kts 82°
2026-04-28 20:01 14.68696 -52.25108 33006 ft 505 kts 82°
2026-04-28 20:02 14.69727 -52.17945 33010 ft 505 kts 82°
2026-04-28 20:02 14.70756 -52.10778 33008 ft 505 kts 82°
2026-04-28 20:03 14.71786 -52.03591 33010 ft 505 kts 82°
2026-04-28 20:03 14.72811 -51.96425 33013 ft 506 kts 82°
2026-04-28 20:04 14.73840 -51.89215 33014 ft 506 kts 82°
2026-04-28 20:04 14.74860 -51.82052 33013 ft 506 kts 82°
2026-04-28 20:05 14.75882 -51.74853 33013 ft 505 kts 82°
2026-04-28 20:05 14.76895 -51.67705 33017 ft 505 kts 82°
2026-04-28 20:06 14.77908 -51.60537 33011 ft 505 kts 82°
2026-04-28 20:06 14.78923 -51.53345 33014 ft 505 kts 82°
2026-04-28 20:07 14.79929 -51.46193 33014 ft 505 kts 82°
2026-04-28 20:07 14.80942 -51.38984 33013 ft 505 kts 82°
2026-04-28 20:08 14.81943 -51.31836 33017 ft 505 kts 82°
2026-04-28 20:08 14.82949 -51.24644 33014 ft 505 kts 82°
2026-04-28 20:09 14.83948 -51.17480 33017 ft 506 kts 82°
2026-04-28 20:09 14.84954 -51.10247 33015 ft 506 kts 82°
2026-04-28 20:10 14.85947 -51.03088 33020 ft 506 kts 82°
2026-04-28 20:10 14.86948 -50.95860 33016 ft 506 kts 82°
2026-04-28 20:11 14.87940 -50.88686 33015 ft 507 kts 82°
2026-04-28 20:11 14.88932 -50.81485 33014 ft 507 kts 82°
2026-04-28 20:12 14.89928 -50.74245 33017 ft 507 kts 82°
2026-04-28 20:12 14.90913 -50.67059 33017 ft 507 kts 82°
2026-04-28 20:13 14.91899 -50.59859 33016 ft 506 kts 82°
2026-04-28 20:13 14.92887 -50.52619 33021 ft 506 kts 82°
2026-04-28 20:14 14.93867 -50.45426 33021 ft 506 kts 82°
2026-04-28 20:14 14.94844 -50.38235 33016 ft 506 kts 82°
2026-04-28 20:15 14.95820 -50.31036 33018 ft 506 kts 82°
2026-04-28 20:15 14.96794 -50.23828 33020 ft 506 kts 82°
2026-04-28 20:16 14.97764 -50.16644 33022 ft 506 kts 82°
2026-04-28 20:16 14.98736 -50.09417 33020 ft 506 kts 82°
2026-04-28 20:17 14.99707 -50.02188 33018 ft 506 kts 82°
2026-04-28 20:17 15.00710 -49.95018 33019 ft 507 kts 82°
2026-04-28 20:18 15.01810 -49.87794 33018 ft 507 kts 81°
2026-04-28 20:18 15.02908 -49.80635 33018 ft 507 kts 81°
2026-04-28 20:19 15.04000 -49.73410 33023 ft 507 kts 81°
2026-04-28 20:19 15.05080 -49.66190 33026 ft 507 kts 81°
2026-04-28 20:20 15.06158 -49.58967 33025 ft 507 kts 81°
2026-04-28 20:20 15.07226 -49.51784 33022 ft 507 kts 81°
2026-04-28 20:21 15.08299 -49.44566 33022 ft 507 kts 81°
2026-04-28 20:21 15.09366 -49.37369 33017 ft 507 kts 81°
2026-04-28 20:22 15.10434 -49.30154 33024 ft 507 kts 81°
2026-04-28 20:22 15.11498 -49.22940 33024 ft 507 kts 81°
2026-04-28 20:23 15.12562 -49.15715 33024 ft 507 kts 81°
2026-04-28 20:23 15.13618 -49.08526 33024 ft 507 kts 81°
2026-04-28 20:24 15.14678 -49.01298 33024 ft 507 kts 81°
2026-04-28 20:24 15.15733 -48.94086 33025 ft 507 kts 82°
2026-04-28 20:25 15.16787 -48.86866 33026 ft 507 kts 82°
2026-04-28 20:25 15.17838 -48.79650 33024 ft 507 kts 82°
2026-04-28 20:26 15.18881 -48.72469 33024 ft 507 kts 82°
2026-04-28 20:26 15.19926 -48.65262 33024 ft 507 kts 82°
2026-04-28 20:27 15.20972 -48.58028 33024 ft 507 kts 82°
2026-04-28 20:27 15.22015 -48.50799 33025 ft 507 kts 82°
2026-04-28 20:28 15.23056 -48.43568 33028 ft 507 kts 82°
2026-04-28 20:28 15.24090 -48.36367 33027 ft 507 kts 82°
2026-04-28 20:29 15.25122 -48.29163 33027 ft 507 kts 82°
2026-04-28 20:29 15.26159 -48.21912 33028 ft 507 kts 82°
2026-04-28 20:30 15.27192 -48.14667 33028 ft 507 kts 82°
2026-04-28 20:30 15.28219 -48.07446 33029 ft 507 kts 82°
2026-04-28 20:31 15.29243 -48.00232 33031 ft 507 kts 82°
2026-04-28 20:31 15.30093 -47.94232 33032 ft 507 kts 82°
2026-04-28 20:32 15.31119 -47.86977 33027 ft 508 kts 82°
2026-04-28 20:32 15.32135 -47.79766 33029 ft 508 kts 82°
2026-04-28 20:33 15.33152 -47.72536 33030 ft 508 kts 82°
2026-04-28 20:33 15.34174 -47.65254 33028 ft 508 kts 82°
2026-04-28 20:34 15.35185 -47.58034 33034 ft 508 kts 82°
2026-04-28 20:34 15.36197 -47.50788 33032 ft 508 kts 82°
2026-04-28 20:35 15.37208 -47.43533 33033 ft 508 kts 82°
2026-04-28 20:35 15.38210 -47.36321 33033 ft 508 kts 82°
2026-04-28 20:36 15.39215 -47.29072 33033 ft 508 kts 82°
2026-04-28 20:36 15.40217 -47.21823 33028 ft 508 kts 82°
2026-04-28 20:37 15.41220 -47.14554 33034 ft 508 kts 82°
2026-04-28 20:37 15.42216 -47.07320 33033 ft 508 kts 82°
2026-04-28 20:38 15.43214 -47.00052 33033 ft 508 kts 82°
2026-04-28 20:38 15.44204 -46.92821 33031 ft 509 kts 82°
2026-04-28 20:39 15.45193 -46.85580 33032 ft 509 kts 82°
2026-04-28 20:39 15.46186 -46.78296 33036 ft 509 kts 82°
2026-04-28 20:40 15.47170 -46.71057 33037 ft 509 kts 82°
2026-04-28 20:40 15.48159 -46.63765 33035 ft 509 kts 82°
2026-04-28 20:41 15.49138 -46.56526 33034 ft 509 kts 82°
2026-04-28 20:41 15.50124 -46.49219 33038 ft 510 kts 82°
2026-04-28 20:42 15.51100 -46.41967 33038 ft 510 kts 82°
2026-04-28 20:42 15.52081 -46.34657 33039 ft 510 kts 82°
2026-04-28 20:43 15.53053 -46.27402 33039 ft 510 kts 82°
2026-04-28 20:43 15.54025 -46.20123 33040 ft 510 kts 82°
2026-04-28 20:44 15.54998 -46.12819 33040 ft 510 kts 82°
2026-04-28 20:44 15.55963 -46.05556 33042 ft 510 kts 82°
2026-04-28 20:45 15.56937 -45.98261 33042 ft 510 kts 82°
2026-04-28 20:45 15.58013 -45.91024 33040 ft 509 kts 81°
2026-04-28 20:46 15.59139 -45.83746 33041 ft 509 kts 81°
2026-04-28 20:46 15.60244 -45.76514 33039 ft 509 kts 81°
2026-04-28 20:47 15.61334 -45.69278 33043 ft 509 kts 81°
2026-04-28 20:47 15.62426 -45.61984 33045 ft 510 kts 81°
2026-04-28 20:48 15.63505 -45.54753 33043 ft 510 kts 81°
2026-04-28 20:48 15.64595 -45.47449 33042 ft 510 kts 81°
2026-04-28 20:49 15.65670 -45.40223 33045 ft 510 kts 81°
2026-04-28 20:49 15.66748 -45.32965 33044 ft 510 kts 81°
2026-04-28 20:50 15.67824 -45.25696 33045 ft 510 kts 81°
2026-04-28 20:50 15.68903 -45.18393 33043 ft 510 kts 81°
2026-04-28 20:51 15.69970 -45.11161 33046 ft 510 kts 81°
2026-04-28 20:51 15.71041 -45.03877 33046 ft 510 kts 81°
2026-04-28 20:52 15.72113 -44.96574 33046 ft 510 kts 81°
2026-04-28 20:52 15.73178 -44.89299 33049 ft 511 kts 81°
2026-04-28 20:53 15.74771 -44.78381 33046 ft 511 kts 81°
2026-04-28 20:53 15.75833 -44.71083 33050 ft 511 kts 81°
2026-04-28 20:54 15.76889 -44.63808 33050 ft 511 kts 81°
2026-04-28 20:54 15.77951 -44.56481 33050 ft 511 kts 81°
2026-04-28 20:55 15.79001 -44.49209 33052 ft 511 kts 81°
2026-04-28 20:55 15.80050 -44.41934 33051 ft 511 kts 81°
2026-04-28 20:56 15.81105 -44.34591 33054 ft 511 kts 81°
2026-04-28 20:56 15.82153 -44.27286 33052 ft 512 kts 81°
2026-04-28 20:57 15.83195 -44.20003 33052 ft 512 kts 81°
2026-04-28 20:57 15.84241 -44.12678 33052 ft 512 kts 81°
2026-04-28 20:58 15.85284 -44.05350 33052 ft 512 kts 81°
2026-04-28 20:58 15.86320 -43.98060 33057 ft 512 kts 81°
2026-04-28 20:59 15.87357 -43.90736 33055 ft 512 kts 81°
2026-04-28 20:59 15.88390 -43.83433 33059 ft 512 kts 81°
2026-04-28 21:00 15.89425 -43.76086 33054 ft 512 kts 81°
2026-04-28 21:00 15.90452 -43.68787 33054 ft 512 kts 81°
2026-04-28 21:01 15.91483 -43.61437 33054 ft 513 kts 81°
2026-04-28 21:01 15.92504 -43.54141 33057 ft 513 kts 81°
2026-04-28 21:02 15.93527 -43.46808 33056 ft 513 kts 81°
2026-04-28 21:02 15.94553 -43.39439 33053 ft 513 kts 81°
2026-04-28 21:03 15.95569 -43.32125 33058 ft 513 kts 81°
2026-04-28 21:03 15.96584 -43.24798 33062 ft 514 kts 81°
2026-04-28 21:04 15.97601 -43.17434 33056 ft 514 kts 81°
2026-04-28 21:04 15.98617 -43.10067 33055 ft 514 kts 81°
2026-04-28 21:05 15.99624 -43.02738 33056 ft 514 kts 81°
2026-04-28 21:05 16.00632 -42.95350 33054 ft 514 kts 82°
2026-04-28 21:06 16.01612 -42.88040 33057 ft 514 kts 82°
2026-04-28 21:06 16.02597 -42.80656 33060 ft 514 kts 82°
2026-04-28 21:07 16.03575 -42.73320 33057 ft 514 kts 82°
2026-04-28 21:07 16.04560 -42.65926 33057 ft 514 kts 82°
2026-04-28 21:08 16.05538 -42.58564 33059 ft 514 kts 82°
2026-04-28 21:08 16.06511 -42.51225 33056 ft 514 kts 82°
2026-04-28 21:09 16.07486 -42.43845 33054 ft 514 kts 82°
2026-04-28 21:09 16.08459 -42.36463 33057 ft 514 kts 82°
2026-04-28 21:10 16.09426 -42.29103 33062 ft 514 kts 82°
2026-04-28 21:10 16.10388 -42.21765 33060 ft 515 kts 82°
2026-04-28 21:11 16.11356 -42.14359 33060 ft 515 kts 82°
2026-04-28 21:11 16.12316 -42.07001 33060 ft 515 kts 82°
2026-04-28 21:12 16.13273 -41.99640 33060 ft 515 kts 82°
2026-04-28 21:12 16.14228 -41.92270 33064 ft 515 kts 82°
2026-04-28 21:13 16.15180 -41.84907 33064 ft 515 kts 82°
2026-04-28 21:13 16.16137 -41.77486 33058 ft 515 kts 82°
2026-04-28 21:14 16.17082 -41.70137 33061 ft 515 kts 82°
2026-04-28 21:14 16.18032 -41.62730 33062 ft 515 kts 82°
2026-04-28 21:15 16.18971 -41.55387 33061 ft 515 kts 82°
2026-04-28 21:15 16.19915 -41.47985 33063 ft 515 kts 82°
2026-04-28 21:16 16.20853 -41.40606 33066 ft 515 kts 82°
2026-04-28 21:16 16.21792 -41.33201 33064 ft 515 kts 82°
2026-04-28 21:17 16.22723 -41.25836 33063 ft 515 kts 82°
2026-04-28 21:17 16.23658 -41.18424 33068 ft 515 kts 82°
2026-04-28 21:18 16.24584 -41.11056 33064 ft 515 kts 81°
2026-04-28 21:18 16.25514 -41.03638 33066 ft 515 kts 81°
2026-04-28 21:19 16.26436 -40.96269 33064 ft 515 kts 81°
2026-04-28 21:19 16.27204 -40.90106 33069 ft 515 kts 81°
2026-04-28 21:20 16.28274 -40.81497 33062 ft 515 kts 81°
2026-04-28 21:20 16.29039 -40.75325 33067 ft 515 kts 81°
2026-04-28 21:21 16.29954 -40.67932 33071 ft 515 kts 81°
2026-04-28 21:21 16.30863 -40.60554 33066 ft 515 kts 81°
2026-04-28 21:22 16.31775 -40.53136 33061 ft 515 kts 81°
2026-04-28 21:22 16.32680 -40.45752 33065 ft 515 kts 81°
2026-04-28 21:23 16.33580 -40.38383 33070 ft 515 kts 81°
2026-04-28 21:23 16.34485 -40.30958 33069 ft 515 kts 81°
2026-04-28 21:24 16.35380 -40.23590 33067 ft 515 kts 81°
2026-04-28 21:24 16.36281 -40.16155 33066 ft 515 kts 81°
2026-04-28 21:25 16.37171 -40.08787 33065 ft 515 kts 81°
2026-04-28 21:25 16.38058 -40.01417 33069 ft 515 kts 81°
2026-04-28 21:26 16.38948 -39.94004 33068 ft 515 kts 81°
2026-04-28 21:26 16.39832 -39.86613 33067 ft 515 kts 81°
2026-04-28 21:27 16.40717 -39.79195 33068 ft 515 kts 81°
2026-04-28 21:27 16.41594 -39.71823 33068 ft 515 kts 81°
2026-04-28 21:28 16.42477 -39.64382 33068 ft 516 kts 81°
2026-04-28 21:28 16.43350 -39.56996 33067 ft 516 kts 81°
2026-04-28 21:29 16.44226 -39.49566 33067 ft 516 kts 81°
2026-04-28 21:29 16.45097 -39.42157 33068 ft 516 kts 81°
2026-04-28 21:30 16.45963 -39.34762 33072 ft 516 kts 81°
2026-04-28 21:30 16.46832 -39.27321 33071 ft 516 kts 81°
2026-04-28 21:31 16.47700 -39.19870 33073 ft 517 kts 81°
2026-04-28 21:31 16.48560 -39.12455 33071 ft 517 kts 81°
2026-04-28 21:32 16.49420 -39.05029 33070 ft 517 kts 81°
2026-04-28 21:32 16.50258 -38.97571 33069 ft 518 kts 82°
2026-04-28 21:33 16.50821 -38.90116 33075 ft 518 kts 84°
2026-04-28 21:33 16.51284 -38.82628 33069 ft 518 kts 84°
2026-04-28 21:34 16.51777 -38.75130 33070 ft 518 kts 84°
2026-04-28 21:34 16.52303 -38.67607 33072 ft 518 kts 84°
2026-04-28 21:35 16.52833 -38.60143 33073 ft 518 kts 84°
2026-04-28 21:35 16.53362 -38.52627 33075 ft 518 kts 84°
2026-04-28 21:36 16.53883 -38.45169 33072 ft 518 kts 84°
2026-04-28 21:36 16.54404 -38.37652 33070 ft 518 kts 84°
2026-04-28 21:37 16.54918 -38.30192 33072 ft 518 kts 84°
2026-04-28 21:37 16.55431 -38.22715 33072 ft 518 kts 84°
2026-04-28 21:38 16.55944 -38.15197 33074 ft 518 kts 84°
2026-04-28 21:38 16.56451 -38.07721 33073 ft 518 kts 84°
2026-04-28 21:39 16.56959 -38.00211 33073 ft 518 kts 84°
2026-04-28 21:39 16.57460 -37.92741 33074 ft 518 kts 84°
2026-04-28 21:40 16.57963 -37.85220 33075 ft 519 kts 84°
2026-04-28 21:40 16.58459 -37.77745 33075 ft 519 kts 84°
2026-04-28 21:41 16.58957 -37.70211 33078 ft 519 kts 84°
2026-04-28 21:41 16.59448 -37.62741 33076 ft 519 kts 84°
2026-04-28 21:42 16.59938 -37.55238 33077 ft 519 kts 84°
2026-04-28 21:42 16.60429 -37.47694 33076 ft 519 kts 84°
2026-04-28 21:43 16.60913 -37.40191 33077 ft 519 kts 84°
2026-04-28 21:43 16.61394 -37.32719 33076 ft 519 kts 84°
2026-04-28 21:44 16.61874 -37.25196 33076 ft 519 kts 84°
2026-04-28 21:44 16.62350 -37.17713 33079 ft 519 kts 84°
2026-04-28 21:45 16.62827 -37.10169 33079 ft 519 kts 84°
2026-04-28 21:45 16.63297 -37.02684 33078 ft 519 kts 84°
2026-04-28 21:46 16.63767 -36.95148 33077 ft 519 kts 84°
2026-04-28 21:46 16.64233 -36.87646 33077 ft 519 kts 84°
2026-04-28 21:47 16.64697 -36.80131 33081 ft 519 kts 84°
2026-04-28 21:47 16.65158 -36.72620 33082 ft 519 kts 84°
2026-04-28 21:48 16.65614 -36.65151 33077 ft 519 kts 84°
2026-04-28 21:48 16.66071 -36.57615 33077 ft 519 kts 84°
2026-04-28 21:49 16.66524 -36.50096 33081 ft 519 kts 84°
2026-04-28 21:49 16.66974 -36.42585 33080 ft 519 kts 84°
2026-04-28 21:50 16.67422 -36.35064 33082 ft 519 kts 84°
2026-04-28 21:50 16.67867 -36.27542 33082 ft 519 kts 84°
2026-04-28 21:51 16.68309 -36.20027 33077 ft 519 kts 84°
2026-04-28 21:51 16.68746 -36.12553 33078 ft 519 kts 84°
2026-04-28 21:52 16.69183 -36.05035 33081 ft 519 kts 84°
2026-04-28 21:52 16.69618 -35.97499 33075 ft 519 kts 84°
2026-04-28 21:53 16.70050 -35.89963 33079 ft 519 kts 84°
2026-04-28 21:53 16.70477 -35.82484 33077 ft 519 kts 85°
2026-04-28 21:54 16.70903 -35.74963 33079 ft 519 kts 85°
2026-04-28 21:54 16.71326 -35.67434 33079 ft 519 kts 85°
2026-04-28 21:55 16.71751 -35.59854 33348 ft 523 kts 85°
2026-04-28 21:55 16.71961 -35.56065 33706 ft 522 kts 85°
2026-04-28 21:55 16.72170 -35.52299 34090 ft 520 kts 85°
2026-04-28 21:56 16.72377 -35.48537 34406 ft 518 kts 85°
2026-04-28 21:56 16.72583 -35.44794 34697 ft 517 kts 85°
2026-04-28 21:56 16.72789 -35.41046 34939 ft 517 kts 85°
2026-04-28 21:56 16.72995 -35.37290 35028 ft 520 kts 85°
2026-04-28 21:57 16.73403 -35.29803 35077 ft 519 kts 85°
2026-04-28 21:57 16.73808 -35.22303 35081 ft 517 kts 85°
2026-04-28 21:58 16.74210 -35.14824 35085 ft 515 kts 85°
2026-04-28 21:58 16.74609 -35.07358 35086 ft 515 kts 85°
2026-04-28 21:59 16.75004 -34.99934 35085 ft 515 kts 85°
2026-04-28 22:00 16.75578 -34.88720 35083 ft 517 kts 85°
2026-04-28 22:00 16.75955 -34.81225 35087 ft 518 kts 85°
2026-04-28 22:01 16.76332 -34.73706 35083 ft 519 kts 85°
2026-04-28 22:01 16.76708 -34.66174 35084 ft 520 kts 85°
2026-04-28 22:02 16.77081 -34.58642 35083 ft 520 kts 85°
2026-04-28 22:02 16.77452 -34.51097 35088 ft 520 kts 85°
2026-04-28 22:03 16.77820 -34.43560 35084 ft 520 kts 85°
2026-04-28 22:03 16.78185 -34.36015 35091 ft 520 kts 85°
2026-04-28 22:04 16.78545 -34.28520 35084 ft 520 kts 85°
2026-04-28 22:04 16.78905 -34.20966 35084 ft 520 kts 85°
2026-04-28 22:05 16.79263 -34.13423 35087 ft 520 kts 85°
2026-04-28 22:05 16.79616 -34.05889 35086 ft 520 kts 85°
2026-04-28 22:06 16.79908 -33.99627 35084 ft 520 kts 85°
2026-04-28 22:06 16.80314 -33.90855 35083 ft 520 kts 85°
2026-04-28 22:07 16.80660 -33.83319 35084 ft 520 kts 85°
2026-04-28 22:07 16.80946 -33.77044 35086 ft 520 kts 85°
2026-04-28 22:08 16.81287 -33.69502 35085 ft 520 kts 85°
2026-04-28 22:08 16.81626 -33.61931 35090 ft 521 kts 85°
2026-04-28 22:09 16.81961 -33.54413 35083 ft 521 kts 85°
2026-04-28 22:09 16.82294 -33.46849 35087 ft 521 kts 85°
2026-04-28 22:10 16.82625 -33.39290 35084 ft 522 kts 85°
2026-04-28 22:10 16.82953 -33.31726 35084 ft 522 kts 85°
2026-04-28 22:11 16.83279 -33.24145 35085 ft 522 kts 85°
2026-04-28 22:11 16.83601 -33.16578 35085 ft 522 kts 86°
2026-04-28 22:12 16.83921 -33.09010 35085 ft 522 kts 86°
2026-04-28 22:12 16.84239 -33.01434 35085 ft 522 kts 86°
2026-04-28 22:13 16.84554 -32.93856 35086 ft 522 kts 86°
2026-04-28 22:13 16.84863 -32.86329 35084 ft 522 kts 86°
2026-04-28 22:14 16.85172 -32.78758 35087 ft 522 kts 86°
2026-04-28 22:14 16.85479 -32.71178 35085 ft 522 kts 86°
2026-04-28 22:15 16.85782 -32.63605 35088 ft 522 kts 86°
2026-04-28 22:15 16.86083 -32.56022 35089 ft 522 kts 86°
2026-04-28 22:16 16.86381 -32.48436 35084 ft 523 kts 86°
2026-04-28 22:16 16.86677 -32.40856 35085 ft 523 kts 86°
2026-04-28 22:17 16.86968 -32.33307 35083 ft 523 kts 86°
2026-04-28 22:17 16.87258 -32.25722 35086 ft 523 kts 86°
2026-04-28 22:18 16.87546 -32.18125 35086 ft 523 kts 86°
2026-04-28 22:18 16.87831 -32.10517 35084 ft 523 kts 86°
2026-04-28 22:19 16.88111 -32.02972 35083 ft 524 kts 86°
2026-04-28 22:19 16.88391 -31.95357 35083 ft 524 kts 86°
2026-04-28 22:20 16.88668 -31.87746 35085 ft 524 kts 86°
2026-04-28 22:20 16.88941 -31.80141 35083 ft 524 kts 86°
2026-04-28 22:21 16.89213 -31.72518 35081 ft 524 kts 86°
2026-04-28 22:21 16.89480 -31.64945 35083 ft 524 kts 86°
2026-04-28 22:22 16.89746 -31.57329 35084 ft 524 kts 86°
2026-04-28 22:22 16.90010 -31.49712 35084 ft 524 kts 86°
2026-04-28 22:23 16.90283 -31.42113 35080 ft 524 kts 86°
2026-04-28 22:23 16.90564 -31.34522 35082 ft 524 kts 86°
2026-04-28 22:24 16.90842 -31.26905 35082 ft 524 kts 86°
2026-04-28 22:24 16.91115 -31.19296 35083 ft 524 kts 86°
2026-04-28 22:25 16.91385 -31.11677 35081 ft 525 kts 86°
2026-04-28 22:25 16.91651 -31.04065 35084 ft 525 kts 86°
2026-04-28 22:26 16.91916 -30.96441 35080 ft 525 kts 86°
2026-04-28 22:26 16.92175 -30.88868 35082 ft 525 kts 86°
2026-04-28 22:27 16.92434 -30.81244 35086 ft 525 kts 86°
2026-04-28 22:27 16.92691 -30.73588 35085 ft 525 kts 86°
2026-04-28 22:28 16.92943 -30.66018 35083 ft 525 kts 86°
2026-04-28 22:28 16.93193 -30.58389 35085 ft 524 kts 86°
2026-04-28 22:29 16.93440 -30.50770 35081 ft 524 kts 86°
2026-04-28 22:29 16.93685 -30.43151 35087 ft 524 kts 86°
2026-04-28 22:30 16.93926 -30.35531 35082 ft 525 kts 86°
2026-04-28 22:30 16.94164 -30.27960 35081 ft 525 kts 87°
2026-04-28 22:31 16.94400 -30.20346 35088 ft 525 kts 87°
2026-04-28 22:31 16.94633 -30.12721 35087 ft 525 kts 87°
2026-04-28 22:32 16.94863 -30.05103 35087 ft 525 kts 87°
2026-04-28 22:32 16.95091 -29.97481 35081 ft 525 kts 87°
2026-04-28 22:33 16.95316 -29.89849 35082 ft 525 kts 87°
2026-04-28 22:33 16.95538 -29.82223 35091 ft 525 kts 87°
2026-04-28 22:34 16.95757 -29.74585 35089 ft 526 kts 87°
2026-04-28 22:34 16.95973 -29.66994 35083 ft 526 kts 87°
2026-04-28 22:35 16.96187 -29.59350 35081 ft 526 kts 87°
2026-04-28 22:35 16.96398 -29.51711 35082 ft 526 kts 87°
2026-04-28 22:36 16.96606 -29.44061 35085 ft 526 kts 87°
2026-04-28 22:36 16.96811 -29.36418 35087 ft 527 kts 87°
2026-04-28 22:37 16.97013 -29.28806 35084 ft 527 kts 87°
2026-04-28 22:37 16.97213 -29.21149 35083 ft 527 kts 87°
2026-04-28 22:38 16.97411 -29.13482 35084 ft 527 kts 87°
2026-04-28 22:38 16.97604 -29.05873 35084 ft 527 kts 87°
2026-04-28 22:39 16.97796 -28.98193 35087 ft 527 kts 87°
2026-04-28 22:39 16.97985 -28.90536 35086 ft 528 kts 87°
2026-04-28 22:40 16.98170 -28.82917 35082 ft 528 kts 87°
2026-04-28 22:40 16.98353 -28.75244 35083 ft 528 kts 88°
2026-04-28 22:41 16.98534 -28.67568 35088 ft 528 kts 88°
2026-04-28 22:41 16.98711 -28.59906 35089 ft 528 kts 88°
2026-04-28 22:42 16.98886 -28.52225 35082 ft 529 kts 88°
2026-04-28 22:42 16.99058 -28.44541 35084 ft 529 kts 88°
2026-04-28 22:43 16.99227 -28.36855 35090 ft 529 kts 88°
2026-04-28 22:43 16.99393 -28.29210 35081 ft 529 kts 88°
2026-04-28 22:44 16.99556 -28.21530 35083 ft 529 kts 88°
2026-04-28 22:44 16.99717 -28.13831 35089 ft 529 kts 88°
2026-04-28 22:45 16.99876 -28.06140 35078 ft 529 kts 88°
2026-04-28 22:45 17.00201 -27.98513 35084 ft 527 kts 81°
2026-04-28 22:46 17.01417 -27.90992 35091 ft 524 kts 77°
2026-04-28 22:46 17.02755 -27.83488 35084 ft 524 kts 77°
2026-04-28 22:47 17.04058 -27.75992 35086 ft 524 kts 78°
2026-04-28 22:47 17.05324 -27.68502 35092 ft 523 kts 78°
2026-04-28 22:48 17.06578 -27.61001 35086 ft 523 kts 78°
2026-04-28 22:48 17.07831 -27.53498 35079 ft 524 kts 78°
2026-04-28 22:49 17.09076 -27.46039 35089 ft 524 kts 78°
2026-04-28 22:49 17.10330 -27.38513 35090 ft 525 kts 78°
2026-04-28 22:50 17.11582 -27.30979 35089 ft 525 kts 78°
2026-04-28 22:50 17.12824 -27.23494 35086 ft 526 kts 78°
2026-04-28 22:51 17.14072 -27.15951 35087 ft 526 kts 78°
2026-04-28 22:51 17.15318 -27.08401 35076 ft 527 kts 78°
2026-04-28 22:52 17.16561 -27.00847 35087 ft 527 kts 78°
2026-04-28 22:52 17.17803 -26.93289 35078 ft 527 kts 78°
2026-04-28 22:53 17.19042 -26.85729 35085 ft 527 kts 78°
2026-04-28 22:53 17.20269 -26.78218 35071 ft 527 kts 78°
2026-04-28 22:54 17.21501 -26.70665 35084 ft 527 kts 78°
2026-04-28 22:54 17.22731 -26.63103 35073 ft 527 kts 78°
2026-04-28 22:55 17.23754 -26.56806 35084 ft 527 kts 78°
2026-04-28 22:55 17.24978 -26.49246 35080 ft 527 kts 78°
2026-04-28 22:56 17.26201 -26.41676 35087 ft 527 kts 78°
2026-04-28 22:56 17.27425 -26.34083 35079 ft 528 kts 78°
2026-04-28 22:57 17.28636 -26.26550 35071 ft 528 kts 78°
2026-04-28 22:57 17.29853 -26.18960 35079 ft 529 kts 78°
2026-04-28 22:58 17.31067 -26.11372 35082 ft 529 kts 78°
2026-04-28 22:58 17.32280 -26.03771 35083 ft 529 kts 78°
2026-04-28 22:59 17.33490 -25.96172 35081 ft 530 kts 78°
2026-04-28 22:59 17.34698 -25.88560 35080 ft 530 kts 78°
2026-04-28 23:00 17.35905 -25.80945 35069 ft 530 kts 79°
2026-04-28 23:00 17.37107 -25.73333 35088 ft 530 kts 79°
2026-04-28 23:01 17.38301 -25.65761 35086 ft 530 kts 79°
2026-04-28 23:01 17.39498 -25.58143 35078 ft 530 kts 79°
2026-04-28 23:02 17.40694 -25.50513 35084 ft 531 kts 79°
2026-04-28 23:02 17.41887 -25.42887 35088 ft 531 kts 79°
2026-04-28 23:03 17.43078 -25.35249 35086 ft 531 kts 79°
2026-04-28 23:03 17.44262 -25.27640 35095 ft 531 kts 79°
2026-04-28 23:04 17.45448 -25.19999 35088 ft 532 kts 79°
2026-04-28 23:04 17.47224 -25.08522 35081 ft 532 kts 79°
2026-04-28 23:05 17.48405 -25.00859 35094 ft 533 kts 79°
2026-04-28 23:05 17.49583 -24.93199 35081 ft 533 kts 79°
2026-04-28 23:06 17.50760 -24.85527 35081 ft 533 kts 79°
2026-04-28 23:06 17.51926 -24.77902 35076 ft 533 kts 79°
2026-04-28 23:07 17.53098 -24.70217 35076 ft 533 kts 79°
2026-04-28 23:07 17.54266 -24.62541 35080 ft 534 kts 79°
2026-04-28 23:08 17.55427 -24.54894 35077 ft 534 kts 79°
2026-04-28 23:08 17.56591 -24.47200 35075 ft 534 kts 79°
2026-04-28 23:09 17.57755 -24.39493 35073 ft 534 kts 79°
2026-04-28 23:09 17.58913 -24.31798 35074 ft 535 kts 79°
2026-04-28 23:10 17.60063 -24.24142 35076 ft 535 kts 79°
2026-04-28 23:10 17.61216 -24.16438 35074 ft 535 kts 79°
2026-04-28 23:11 17.62369 -24.08722 35074 ft 535 kts 79°
2026-04-28 23:11 17.63518 -24.01003 35075 ft 535 kts 79°
2026-04-28 23:12 17.64664 -23.93289 35074 ft 536 kts 79°
2026-04-28 23:12 17.65808 -23.85564 35076 ft 536 kts 80°
2026-04-28 23:13 17.66948 -23.77844 35078 ft 536 kts 80°
2026-04-28 23:13 17.68081 -23.70155 35077 ft 536 kts 80°
2026-04-28 23:14 17.69217 -23.62418 35078 ft 536 kts 80°
2026-04-28 23:14 17.70351 -23.54676 35075 ft 537 kts 80°
2026-04-28 23:15 17.71484 -23.46919 35077 ft 537 kts 80°
2026-04-28 23:15 17.72606 -23.39216 35076 ft 537 kts 80°
2026-04-28 23:16 17.73733 -23.31457 35076 ft 538 kts 80°
2026-04-28 23:16 17.74856 -23.23699 35075 ft 538 kts 80°
2026-04-28 23:17 17.75980 -23.15918 35076 ft 539 kts 80°
2026-04-28 23:17 17.77093 -23.08190 35072 ft 539 kts 80°
2026-04-28 23:18 17.78210 -23.00413 35076 ft 539 kts 80°
2026-04-28 23:18 17.79325 -22.92622 35076 ft 540 kts 80°
2026-04-28 23:19 17.80438 -22.84824 35074 ft 540 kts 80°
2026-04-28 23:19 17.81549 -22.77021 35072 ft 540 kts 80°
2026-04-28 23:20 17.82657 -22.69214 35072 ft 541 kts 80°
2026-04-28 23:20 17.83757 -22.61444 35068 ft 541 kts 81°
2026-04-28 23:21 17.84859 -22.53635 35069 ft 541 kts 81°
2026-04-28 23:21 17.85960 -22.45811 35066 ft 541 kts 81°
2026-04-28 23:22 17.87058 -22.37982 35065 ft 542 kts 81°
2026-04-28 23:22 17.88251 -22.30177 35053 ft 538 kts 72°
2026-04-28 23:23 17.89676 -22.26593 35073 ft 530 kts 54°
2026-04-28 23:23 17.91863 -22.23517 35079 ft 522 kts 41°
2026-04-28 23:23 17.94584 -22.21048 35059 ft 511 kts 26°
2026-04-28 23:23 17.97602 -22.19245 35094 ft 505 kts 22°
2026-04-28 23:24 18.03771 -22.15614 35078 ft 511 kts 24°
2026-04-28 23:24 18.09965 -22.11855 35073 ft 516 kts 24°
2026-04-28 23:25 18.16168 -22.08030 35068 ft 518 kts 24°
2026-04-28 23:25 18.22381 -22.04183 35063 ft 517 kts 24°
2026-04-28 23:26 18.28576 -22.00351 35061 ft 516 kts 24°
2026-04-28 23:26 18.34758 -21.96529 35068 ft 514 kts 24°
2026-04-28 23:27 18.40920 -21.92718 35067 ft 512 kts 24°
2026-04-28 23:27 18.47064 -21.88915 35067 ft 511 kts 24°
2026-04-28 23:28 18.53163 -21.85137 35069 ft 511 kts 24°
2026-04-28 23:28 18.59297 -21.81334 35067 ft 510 kts 24°
2026-04-28 23:29 18.65431 -21.77528 35070 ft 511 kts 23°
2026-04-28 23:29 18.71523 -21.73744 35074 ft 511 kts 23°
2026-04-28 23:30 18.77656 -21.69932 35073 ft 512 kts 23°
2026-04-28 23:30 18.83803 -21.66107 35066 ft 513 kts 23°
2026-04-28 23:31 18.89948 -21.62280 35071 ft 513 kts 23°
2026-04-28 23:31 18.96105 -21.58443 35068 ft 513 kts 23°
2026-04-28 23:32 19.02230 -21.54621 35068 ft 514 kts 23°
2026-04-28 23:32 19.08384 -21.50779 35070 ft 514 kts 23°
2026-04-28 23:33 19.14544 -21.46929 35069 ft 514 kts 22°
2026-04-28 23:33 19.20702 -21.43077 35067 ft 514 kts 22°
2026-04-28 23:34 19.26858 -21.39224 35066 ft 513 kts 22°
2026-04-28 23:34 19.33010 -21.35369 35058 ft 513 kts 22°
2026-04-28 23:35 19.39157 -21.31514 35073 ft 513 kts 22°
2026-04-28 23:35 19.45258 -21.27685 35071 ft 512 kts 22°
2026-04-28 23:36 19.51391 -21.23832 35063 ft 512 kts 22°
2026-04-28 23:36 19.57536 -21.19968 35067 ft 512 kts 22°
2026-04-28 23:37 19.63634 -21.16131 35064 ft 513 kts 22°
2026-04-28 23:37 19.69775 -21.12263 35067 ft 513 kts 22°
2026-04-28 23:38 19.75911 -21.08394 35069 ft 513 kts 22°
2026-04-28 23:38 19.82055 -21.04517 35069 ft 513 kts 22°
2026-04-28 23:39 19.88207 -21.00631 35062 ft 513 kts 22°
2026-04-28 23:39 19.94347 -20.96749 35067 ft 514 kts 22°
2026-04-28 23:40 20.00468 -20.92876 35063 ft 514 kts 22°
2026-04-28 23:40 20.06611 -20.88985 35065 ft 514 kts 22°
2026-04-28 23:41 20.12763 -20.85085 35067 ft 514 kts 22°
2026-04-28 23:41 20.18882 -20.81202 35067 ft 515 kts 22°
2026-04-28 23:42 20.25045 -20.77288 35069 ft 515 kts 22°
2026-04-28 23:42 20.31202 -20.73372 35065 ft 515 kts 22°
2026-04-28 23:43 20.37360 -20.69454 35070 ft 515 kts 22°
2026-04-28 23:43 20.42472 -20.66194 35057 ft 515 kts 22°
2026-04-28 23:44 20.49628 -20.61620 35066 ft 515 kts 22°
2026-04-28 23:44 20.54779 -20.58324 35062 ft 515 kts 22°
2026-04-28 23:45 20.60893 -20.54409 35062 ft 515 kts 22°
2026-04-28 23:45 20.67047 -20.50465 35063 ft 515 kts 22°
2026-04-28 23:46 20.73201 -20.46517 35068 ft 515 kts 22°
2026-04-28 23:46 20.79326 -20.42584 35066 ft 515 kts 22°
2026-04-28 23:47 20.85476 -20.38632 35063 ft 515 kts 22°
2026-04-28 23:47 20.91622 -20.34678 35063 ft 515 kts 22°
2026-04-28 23:48 20.97755 -20.30728 35055 ft 514 kts 22°
2026-04-28 23:48 21.03888 -20.26775 35060 ft 514 kts 22°
2026-04-28 23:49 21.10016 -20.22822 35059 ft 514 kts 22°
2026-04-28 23:49 21.16132 -20.18872 35057 ft 513 kts 22°
2026-04-28 23:50 21.22246 -20.14920 35060 ft 513 kts 22°
2026-04-28 23:50 21.28364 -20.10961 35061 ft 513 kts 22°
2026-04-28 23:51 21.34487 -20.06996 35060 ft 513 kts 22°
2026-04-28 23:51 21.40561 -20.03058 35057 ft 513 kts 22°
2026-04-28 23:52 21.46681 -19.99086 35059 ft 513 kts 22°
2026-04-28 23:52 21.52793 -19.95115 35062 ft 513 kts 22°
2026-04-28 23:53 21.58898 -19.91145 35054 ft 513 kts 22°
2026-04-28 23:53 21.65004 -19.87170 35061 ft 513 kts 22°
2026-04-28 23:54 21.71105 -19.83195 35058 ft 513 kts 22°
2026-04-28 23:54 21.77172 -19.79238 35053 ft 513 kts 22°
2026-04-28 23:55 21.83279 -19.75251 35055 ft 513 kts 22°
2026-04-28 23:55 21.89386 -19.71259 35057 ft 513 kts 22°
2026-04-28 23:56 21.95493 -19.67263 35056 ft 513 kts 22°
2026-04-28 23:56 22.01600 -19.63263 35056 ft 513 kts 22°
2026-04-28 23:57 22.07667 -19.59286 35044 ft 513 kts 22°
2026-04-28 23:57 22.13774 -19.55280 35053 ft 513 kts 22°
2026-04-28 23:58 22.19880 -19.51273 35061 ft 513 kts 22°
2026-04-28 23:58 22.25985 -19.47261 35059 ft 513 kts 22°
2026-04-28 23:59 22.32082 -19.43249 35052 ft 513 kts 22°
2026-04-28 23:59 22.38152 -19.39251 35050 ft 513 kts 22°
2026-04-29 00:00 22.44248 -19.35232 35057 ft 513 kts 22°
2026-04-29 00:00 22.50342 -19.31210 35058 ft 513 kts 22°
2026-04-29 00:01 22.56441 -19.27180 35054 ft 513 kts 22°
2026-04-29 00:01 22.62531 -19.23152 35055 ft 513 kts 22°
2026-04-29 00:02 22.68622 -19.19119 35054 ft 513 kts 22°
2026-04-29 00:02 22.74709 -19.15085 35052 ft 512 kts 22°
2026-04-29 00:03 22.80756 -19.11072 35057 ft 512 kts 22°
2026-04-29 00:03 22.86832 -19.07037 35060 ft 511 kts 22°
2026-04-29 00:04 22.92903 -19.03001 35056 ft 511 kts 23°
2026-04-29 00:04 22.98962 -18.98968 35061 ft 511 kts 23°
2026-04-29 00:05 23.05022 -18.94930 35052 ft 510 kts 23°
2026-04-29 00:05 23.11044 -18.90913 35053 ft 510 kts 23°
2026-04-29 00:06 23.17089 -18.86877 35052 ft 510 kts 23°
2026-04-29 00:06 23.23138 -18.82834 35053 ft 510 kts 23°
2026-04-29 00:07 23.29191 -18.78784 35053 ft 510 kts 23°
2026-04-29 00:07 23.35227 -18.74740 35052 ft 510 kts 23°
2026-04-29 00:08 23.41262 -18.70693 35052 ft 509 kts 24°
2026-04-29 00:08 23.47294 -18.66643 35045 ft 509 kts 24°
2026-04-29 00:09 23.53330 -18.62586 35047 ft 509 kts 24°
2026-04-29 00:09 23.59330 -18.58549 35046 ft 509 kts 24°
2026-04-29 00:10 23.65355 -18.54492 35050 ft 509 kts 24°
2026-04-29 00:10 23.71385 -18.50426 35048 ft 509 kts 24°
2026-04-29 00:11 23.77406 -18.46361 35049 ft 509 kts 24°
2026-04-29 00:12 23.86438 -18.40256 35048 ft 509 kts 24°
2026-04-29 00:12 23.92454 -18.36184 35047 ft 509 kts 24°
2026-04-29 00:13 23.98473 -18.32105 35053 ft 508 kts 24°
2026-04-29 00:13 24.04496 -18.28019 35048 ft 508 kts 25°
2026-04-29 00:14 24.10503 -18.23939 35041 ft 508 kts 25°
2026-04-29 00:14 24.16507 -18.19856 35049 ft 508 kts 25°
2026-04-29 00:15 24.22507 -18.15772 35048 ft 508 kts 25°
2026-04-29 00:15 24.28470 -18.11709 35048 ft 507 kts 25°
2026-04-29 00:16 24.34468 -18.07617 35051 ft 507 kts 25°
2026-04-29 00:16 24.40461 -18.03523 35034 ft 507 kts 25°
2026-04-29 00:17 24.46448 -17.99430 35055 ft 506 kts 25°
2026-04-29 00:17 24.52416 -17.95345 35062 ft 506 kts 25°
2026-04-29 00:18 24.58359 -17.91272 35047 ft 506 kts 26°
2026-04-29 00:18 24.64324 -17.87179 35050 ft 505 kts 26°
2026-04-29 00:19 24.70298 -17.83075 35047 ft 505 kts 26°
2026-04-29 00:19 24.76255 -17.78979 35049 ft 505 kts 26°
2026-04-29 00:20 24.82215 -17.74875 35050 ft 505 kts 26°
2026-04-29 00:20 24.88170 -17.70770 35048 ft 504 kts 26°
2026-04-29 00:21 24.94073 -17.66696 35048 ft 504 kts 26°
2026-04-29 00:21 25.00050 -17.62568 35050 ft 503 kts 27°
2026-04-29 00:22 25.05946 -17.58484 35044 ft 503 kts 27°
2026-04-29 00:22 25.11874 -17.54369 35049 ft 503 kts 27°
2026-04-29 00:23 25.17799 -17.50251 35046 ft 503 kts 27°
2026-04-29 00:23 25.23689 -17.46153 35044 ft 503 kts 27°
2026-04-29 00:24 25.29611 -17.42028 35043 ft 503 kts 27°
2026-04-29 00:24 25.35531 -17.37901 35046 ft 503 kts 27°
2026-04-29 00:25 25.41449 -17.33769 35045 ft 503 kts 27°
2026-04-29 00:25 25.47365 -17.29634 35045 ft 502 kts 27°
2026-04-29 00:26 25.53247 -17.25518 35043 ft 502 kts 27°
2026-04-29 00:26 25.59165 -17.21372 35046 ft 502 kts 27°
2026-04-29 00:27 25.65074 -17.17227 35044 ft 502 kts 27°
2026-04-29 00:27 25.70981 -17.13079 35045 ft 502 kts 27°
2026-04-29 00:28 25.76878 -17.08932 35049 ft 502 kts 28°
2026-04-29 00:28 25.82746 -17.04802 35031 ft 502 kts 28°
2026-04-29 00:29 25.88635 -17.00651 35050 ft 501 kts 28°
2026-04-29 00:29 25.94527 -16.96493 35055 ft 501 kts 28°
2026-04-29 00:30 26.00416 -16.92333 35039 ft 501 kts 28°
2026-04-29 00:30 26.05303 -16.88876 35049 ft 501 kts 28°
2026-04-29 00:31 26.11179 -16.84715 35050 ft 501 kts 28°
2026-04-29 00:31 26.17052 -16.80551 35047 ft 501 kts 28°
2026-04-29 00:32 26.23138 -16.76863 35045 ft 494 kts 19°
2026-04-29 00:32 26.29459 -16.73855 35052 ft 493 kts 18°
2026-04-29 00:33 26.35785 -16.70881 35049 ft 494 kts 18°
2026-04-29 00:33 26.42102 -16.67867 35045 ft 494 kts 18°
2026-04-29 00:34 26.48383 -16.64838 35046 ft 494 kts 19°
2026-04-29 00:34 26.54691 -16.61785 35044 ft 494 kts 19°
2026-04-29 00:35 26.61004 -16.58726 35045 ft 494 kts 19°
2026-04-29 00:35 26.67310 -16.55670 35053 ft 494 kts 19°
2026-04-29 00:36 26.73628 -16.52605 35046 ft 494 kts 19°
2026-04-29 00:36 26.79938 -16.49540 35043 ft 494 kts 19°
2026-04-29 00:37 26.86197 -16.46496 35045 ft 494 kts 19°
2026-04-29 00:37 26.92502 -16.43426 35047 ft 494 kts 19°
2026-04-29 00:38 26.98800 -16.40355 35047 ft 494 kts 19°
2026-04-29 00:38 27.05104 -16.37278 35046 ft 494 kts 19°
2026-04-29 00:39 27.11402 -16.34200 35046 ft 494 kts 19°
2026-04-29 00:39 27.17707 -16.31115 35047 ft 494 kts 19°
2026-04-29 00:40 27.24009 -16.28027 35043 ft 494 kts 19°
2026-04-29 00:40 27.30316 -16.24934 35047 ft 494 kts 19°
2026-04-29 00:41 27.36581 -16.21857 35047 ft 494 kts 19°
2026-04-29 00:41 27.42888 -16.18755 35045 ft 494 kts 19°
2026-04-29 00:42 27.49188 -16.15653 35048 ft 494 kts 19°
2026-04-29 00:42 27.55501 -16.12540 35046 ft 494 kts 19°
2026-04-29 00:43 27.61764 -16.09449 35046 ft 494 kts 19°
2026-04-29 00:43 27.68067 -16.06334 35044 ft 494 kts 19°
2026-04-29 00:44 27.74358 -16.03220 35047 ft 494 kts 19°
2026-04-29 00:44 27.80653 -16.00101 35045 ft 493 kts 19°
2026-04-29 00:45 27.86937 -15.96983 35047 ft 493 kts 19°
2026-04-29 00:45 27.93217 -15.93864 35048 ft 493 kts 19°
2026-04-29 00:46 27.99498 -15.90740 35037 ft 493 kts 19°
2026-04-29 00:46 28.05768 -15.87617 35052 ft 492 kts 19°
2026-04-29 00:47 28.12042 -15.84489 35057 ft 492 kts 19°
2026-04-29 00:47 28.18306 -15.81361 35045 ft 492 kts 20°
2026-04-29 00:48 28.24574 -15.78228 35049 ft 492 kts 20°
2026-04-29 00:48 28.30841 -15.75091 35045 ft 492 kts 20°
2026-04-29 00:49 28.37064 -15.71972 35049 ft 492 kts 20°
2026-04-29 00:49 28.43326 -15.68829 35047 ft 491 kts 20°
2026-04-29 00:50 28.49584 -15.65684 35049 ft 491 kts 20°
2026-04-29 00:50 28.55838 -15.62537 35050 ft 491 kts 20°
2026-04-29 00:51 28.62089 -15.59387 35049 ft 491 kts 20°
2026-04-29 00:51 28.68337 -15.56235 35050 ft 491 kts 21°
2026-04-29 00:52 28.74576 -15.53084 35051 ft 491 kts 21°
2026-04-29 00:52 28.80815 -15.49928 35049 ft 491 kts 21°
2026-04-29 00:53 28.87063 -15.46764 35050 ft 491 kts 21°
2026-04-29 00:53 28.93271 -15.43615 35053 ft 491 kts 21°
2026-04-29 00:54 28.99524 -15.40440 35048 ft 492 kts 21°
2026-04-29 00:54 29.05780 -15.37258 35057 ft 492 kts 21°
2026-04-29 00:55 29.12047 -15.34067 35055 ft 492 kts 22°
2026-04-29 00:55 29.18271 -15.30894 35053 ft 493 kts 22°
2026-04-29 00:56 29.24542 -15.27693 35052 ft 493 kts 22°
2026-04-29 00:56 29.30816 -15.24485 35055 ft 494 kts 22°
2026-04-29 00:57 29.37087 -15.21275 35052 ft 494 kts 22°
2026-04-29 00:57 29.43358 -15.18060 35050 ft 494 kts 22°
2026-04-29 00:58 29.49636 -15.14837 35053 ft 494 kts 22°
2026-04-29 00:58 29.55877 -15.11629 35050 ft 494 kts 22°
2026-04-29 00:59 29.62144 -15.08404 35054 ft 493 kts 22°
2026-04-29 00:59 29.68413 -15.05172 35056 ft 493 kts 22°
2026-04-29 01:00 29.74673 -15.01941 35050 ft 493 kts 22°
2026-04-29 01:00 29.80929 -14.98708 35043 ft 493 kts 22°
2026-04-29 01:01 29.87189 -14.95468 35044 ft 493 kts 22°
2026-04-29 01:01 29.93454 -14.92221 35049 ft 493 kts 22°
2026-04-29 01:02 29.99667 -14.88996 35043 ft 492 kts 22°
2026-04-29 01:02 30.05919 -14.85747 35037 ft 492 kts 22°
2026-04-29 01:03 30.12168 -14.82495 35054 ft 492 kts 22°
2026-04-29 01:03 30.18422 -14.79236 35044 ft 492 kts 22°
2026-04-29 01:04 30.24662 -14.75979 35053 ft 492 kts 22°
2026-04-29 01:04 30.30899 -14.72720 35044 ft 492 kts 22°
2026-04-29 01:05 30.37133 -14.69457 35044 ft 492 kts 22°
2026-04-29 01:05 30.43330 -14.66209 35046 ft 492 kts 22°
2026-04-29 01:06 30.49560 -14.62939 35043 ft 492 kts 22°
2026-04-29 01:06 30.55796 -14.59662 35047 ft 491 kts 22°
2026-04-29 01:07 30.62029 -14.56381 35043 ft 491 kts 22°
2026-04-29 01:07 30.68255 -14.53100 35043 ft 491 kts 22°
2026-04-29 01:08 30.74486 -14.49811 35039 ft 491 kts 22°
2026-04-29 01:08 30.80682 -14.46535 35039 ft 491 kts 22°
2026-04-29 01:09 30.86903 -14.43242 35042 ft 491 kts 22°
2026-04-29 01:09 30.93116 -14.39925 35042 ft 491 kts 22°
2026-04-29 01:10 30.99303 -14.36518 35043 ft 491 kts 23°
2026-04-29 01:10 31.05481 -14.33092 35042 ft 491 kts 23°
2026-04-29 01:11 31.11659 -14.29671 35039 ft 491 kts 23°
2026-04-29 01:11 31.17832 -14.26258 35038 ft 491 kts 23°
2026-04-29 01:12 31.24003 -14.22843 35035 ft 491 kts 23°
2026-04-29 01:12 31.30180 -14.19421 35037 ft 491 kts 22°
2026-04-29 01:13 31.36313 -14.16016 35036 ft 491 kts 22°
2026-04-29 01:13 31.42479 -14.12589 35037 ft 491 kts 22°
2026-04-29 01:14 31.48651 -14.09152 35032 ft 491 kts 22°
2026-04-29 01:14 31.54828 -14.05708 35034 ft 491 kts 22°
2026-04-29 01:15 31.60997 -14.02264 35030 ft 491 kts 22°
2026-04-29 01:15 31.66125 -13.99397 35032 ft 490 kts 22°
2026-04-29 01:16 31.73293 -13.95383 35035 ft 490 kts 22°
2026-04-29 01:16 31.78417 -13.92509 35038 ft 490 kts 22°
2026-04-29 01:17 31.84572 -13.89054 35032 ft 490 kts 22°
2026-04-29 01:17 31.90738 -13.85586 35030 ft 490 kts 22°
2026-04-29 01:18 31.96894 -13.82118 35032 ft 490 kts 22°
2026-04-29 01:18 32.06076 -13.76938 35032 ft 490 kts 22°
2026-04-29 01:19 32.12233 -13.73457 35024 ft 490 kts 22°
2026-04-29 01:19 32.18373 -13.69981 35027 ft 489 kts 22°
2026-04-29 01:20 32.24518 -13.66496 35026 ft 489 kts 22°
2026-04-29 01:20 32.30661 -13.63008 35026 ft 489 kts 22°
2026-04-29 01:21 32.36760 -13.59540 35026 ft 489 kts 22°
2026-04-29 01:21 32.42904 -13.56040 35023 ft 489 kts 22°
2026-04-29 01:22 32.49039 -13.52540 35022 ft 489 kts 22°
2026-04-29 01:22 32.55139 -13.49055 35022 ft 489 kts 22°
2026-04-29 01:23 32.61270 -13.45547 35019 ft 489 kts 22°
2026-04-29 01:23 32.67399 -13.42035 35015 ft 489 kts 22°
2026-04-29 01:24 32.73533 -13.38514 35022 ft 489 kts 22°
2026-04-29 01:24 32.79658 -13.34993 35016 ft 489 kts 22°
2026-04-29 01:25 32.85742 -13.31491 35018 ft 489 kts 22°
2026-04-29 01:25 32.91858 -13.27964 35020 ft 489 kts 22°
2026-04-29 01:26 32.97981 -13.24428 35018 ft 489 kts 22°
2026-04-29 01:26 33.04097 -13.20891 35019 ft 489 kts 22°
2026-04-29 01:27 33.10226 -13.17340 35019 ft 489 kts 22°
2026-04-29 01:27 33.16340 -13.13793 35018 ft 489 kts 22°
2026-04-29 01:28 33.22460 -13.10237 35015 ft 489 kts 22°
2026-04-29 01:28 33.28578 -13.06676 35013 ft 489 kts 22°
2026-04-29 01:29 33.34659 -13.03131 35012 ft 488 kts 21°
2026-04-29 01:29 33.40777 -12.99559 35013 ft 488 kts 21°
2026-04-29 01:30 33.46856 -12.96005 35000 ft 488 kts 21°
2026-04-29 01:30 33.52951 -12.92435 35002 ft 488 kts 21°
2026-04-29 01:31 33.59050 -12.88858 35007 ft 487 kts 21°
2026-04-29 01:31 33.65139 -12.85280 35005 ft 487 kts 21°
2026-04-29 01:32 33.71236 -12.81693 35001 ft 488 kts 21°
2026-04-29 01:32 33.77300 -12.78119 35004 ft 488 kts 21°
2026-04-29 01:33 33.83397 -12.74519 35001 ft 488 kts 21°
2026-04-29 01:33 33.89488 -12.70918 35002 ft 488 kts 21°
2026-04-29 01:34 33.95577 -12.67312 34998 ft 488 kts 21°
2026-04-29 01:34 34.01673 -12.63696 34999 ft 488 kts 21°
2026-04-29 01:35 34.07773 -12.60072 34999 ft 488 kts 21°
2026-04-29 01:35 34.13857 -12.56452 35003 ft 488 kts 21°
2026-04-29 01:36 34.19911 -12.52843 34996 ft 487 kts 21°
2026-04-29 01:36 34.25995 -12.49211 34996 ft 487 kts 21°
2026-04-29 01:37 34.32076 -12.45574 34994 ft 487 kts 21°
2026-04-29 01:37 34.38115 -12.41958 34996 ft 487 kts 21°
2026-04-29 01:38 34.44186 -12.38316 34997 ft 487 kts 21°
2026-04-29 01:38 34.50262 -12.34665 34991 ft 487 kts 21°
2026-04-29 01:39 34.56335 -12.31009 34989 ft 487 kts 21°
2026-04-29 01:39 34.62399 -12.27353 34987 ft 486 kts 21°
2026-04-29 01:40 34.68465 -12.23690 34979 ft 486 kts 21°
2026-04-29 01:40 34.74495 -12.20043 34978 ft 486 kts 21°
2026-04-29 01:41 34.80542 -12.16379 34988 ft 486 kts 21°
2026-04-29 01:41 34.86607 -12.12699 34982 ft 486 kts 21°
2026-04-29 01:42 34.92664 -12.09018 34981 ft 486 kts 21°
2026-04-29 01:42 34.98719 -12.05331 34979 ft 486 kts 21°
2026-04-29 01:43 35.04735 -12.01662 34979 ft 486 kts 21°
2026-04-29 01:43 35.10791 -11.97963 34977 ft 486 kts 21°
2026-04-29 01:44 35.16840 -11.94261 34980 ft 486 kts 21°
2026-04-29 01:44 35.22891 -11.90552 34973 ft 487 kts 21°
2026-04-29 01:45 35.28947 -11.86834 34970 ft 487 kts 21°
2026-04-29 01:45 35.35001 -11.83111 34971 ft 486 kts 21°
2026-04-29 01:46 35.41097 -11.79358 35361 ft 490 kts 21°
2026-04-29 01:46 35.44138 -11.77481 35761 ft 488 kts 21°
2026-04-29 01:46 35.47117 -11.75640 36143 ft 486 kts 21°
2026-04-29 01:47 35.50131 -11.73776 36501 ft 484 kts 21°
2026-04-29 01:47 35.53137 -11.71916 36830 ft 483 kts 21°
2026-04-29 01:47 35.59179 -11.68179 36960 ft 487 kts 21°
2026-04-29 01:48 35.65215 -11.64434 36954 ft 484 kts 21°
2026-04-29 01:48 35.71210 -11.60707 36959 ft 482 kts 21°
2026-04-29 01:49 35.77186 -11.56989 36957 ft 480 kts 21°
2026-04-29 01:49 35.83148 -11.53273 36957 ft 480 kts 21°
2026-04-29 01:50 35.89124 -11.49541 36959 ft 482 kts 21°
2026-04-29 01:50 35.95114 -11.45779 36957 ft 484 kts 23°
2026-04-29 01:51 36.00740 -11.41198 36957 ft 492 kts 32°
2026-04-29 01:51 36.06190 -11.36008 36961 ft 495 kts 33°
2026-04-29 01:52 36.11639 -11.30782 36960 ft 496 kts 33°
2026-04-29 01:52 36.17120 -11.25573 36951 ft 497 kts 32°
2026-04-29 01:53 36.22611 -11.20378 36955 ft 497 kts 32°
2026-04-29 01:53 36.28111 -11.15173 36941 ft 497 kts 32°
2026-04-29 01:54 36.33571 -11.09995 36942 ft 497 kts 32°
2026-04-29 01:54 36.39057 -11.04780 36940 ft 497 kts 32°
2026-04-29 01:55 36.44545 -10.99552 36939 ft 497 kts 32°
2026-04-29 01:55 36.50032 -10.94317 36937 ft 497 kts 32°
2026-04-29 01:56 36.55518 -10.89073 36934 ft 497 kts 32°
2026-04-29 01:56 36.61006 -10.83817 36933 ft 498 kts 32°
2026-04-29 01:57 36.66466 -10.78579 36937 ft 498 kts 32°
2026-04-29 01:57 36.71953 -10.73305 36925 ft 498 kts 32°
2026-04-29 01:58 36.77448 -10.68014 36926 ft 499 kts 32°
2026-04-29 01:58 36.82944 -10.62711 36924 ft 499 kts 32°
2026-04-29 01:59 36.88436 -10.57402 36921 ft 499 kts 32°
2026-04-29 01:59 36.93936 -10.52076 36923 ft 500 kts 32°
2026-04-29 02:00 36.99431 -10.46745 36924 ft 500 kts 32°
2026-04-29 02:00 37.04894 -10.41434 36917 ft 500 kts 32°
2026-04-29 02:01 37.10391 -10.36081 36913 ft 500 kts 32°
2026-04-29 02:01 37.15890 -10.30715 36917 ft 500 kts 32°
2026-04-29 02:02 37.21371 -10.25357 36910 ft 499 kts 32°
2026-04-29 02:02 37.26846 -10.19994 36902 ft 499 kts 32°
2026-04-29 02:03 37.32318 -10.14625 36920 ft 499 kts 32°
2026-04-29 02:03 37.37792 -10.09244 36904 ft 500 kts 33°
2026-04-29 02:04 37.43236 -10.03882 36903 ft 499 kts 33°
2026-04-29 02:04 37.47820 -9.99358 36901 ft 499 kts 33°
2026-04-29 02:05 37.53249 -9.93992 36882 ft 499 kts 33°
2026-04-29 02:05 37.58714 -9.88579 36904 ft 498 kts 33°
2026-04-29 02:06 37.64167 -9.83168 36892 ft 498 kts 33°
2026-04-29 02:06 37.69611 -9.77756 36886 ft 498 kts 33°
2026-04-29 02:07 37.75024 -9.72364 36890 ft 498 kts 33°
2026-04-29 02:07 37.80468 -9.66932 36887 ft 499 kts 34°
2026-04-29 02:08 37.85921 -9.61479 36885 ft 499 kts 34°
2026-04-29 02:08 37.91379 -9.56011 36885 ft 500 kts 34°
2026-04-29 02:09 37.96838 -9.50531 36881 ft 501 kts 34°
2026-04-29 02:09 38.02275 -9.45063 36878 ft 502 kts 34°
2026-04-29 02:10 38.07747 -9.39549 36877 ft 502 kts 34°
2026-04-29 02:10 38.13223 -9.34019 36877 ft 503 kts 35°
2026-04-29 02:11 38.18696 -9.28483 36865 ft 503 kts 35°
2026-04-29 02:11 38.24170 -9.22934 36875 ft 503 kts 35°
2026-04-29 02:12 38.29641 -9.17377 36869 ft 503 kts 36°
2026-04-29 02:12 38.35114 -9.11806 36867 ft 503 kts 36°
2026-04-29 02:13 38.40575 -9.06237 36861 ft 503 kts 36°
2026-04-29 02:13 38.46031 -9.00662 36859 ft 502 kts 36°
2026-04-29 02:14 38.51453 -8.95110 36865 ft 502 kts 36°
2026-04-29 02:14 38.56899 -8.89523 36855 ft 502 kts 36°
2026-04-29 02:15 38.62348 -8.83922 36861 ft 502 kts 37°
2026-04-29 02:15 38.67782 -8.78325 36862 ft 501 kts 37°
2026-04-29 02:16 38.73217 -8.72716 36860 ft 501 kts 37°
2026-04-29 02:16 38.78641 -8.67106 36859 ft 501 kts 37°
2026-04-29 02:17 38.84035 -8.61517 36861 ft 501 kts 37°
2026-04-29 02:17 38.89454 -8.55889 36859 ft 501 kts 38°
2026-04-29 02:18 38.94871 -8.50254 36862 ft 501 kts 38°
2026-04-29 02:18 39.00293 -8.44601 36848 ft 501 kts 38°
2026-04-29 02:19 39.05668 -8.38986 36845 ft 502 kts 38°
2026-04-29 02:19 39.11098 -8.33301 36850 ft 502 kts 38°
2026-04-29 02:20 39.16528 -8.27606 36852 ft 503 kts 38°
2026-04-29 02:20 39.21953 -8.21903 36848 ft 503 kts 38°
2026-04-29 02:21 39.27383 -8.16184 36848 ft 503 kts 38°
2026-04-29 02:21 39.32800 -8.10466 36865 ft 503 kts 39°
2026-04-29 02:22 39.38205 -8.04750 36845 ft 502 kts 39°
2026-04-29 02:22 39.43567 -7.99067 36845 ft 501 kts 39°
2026-04-29 02:23 39.48946 -7.93354 36843 ft 499 kts 39°
2026-04-29 02:23 39.54312 -7.87644 36859 ft 498 kts 39°
2026-04-29 02:24 39.59658 -7.81943 36855 ft 496 kts 39°
2026-04-29 02:25 39.67639 -7.73409 36839 ft 495 kts 39°
2026-04-29 02:25 39.72941 -7.67727 36859 ft 494 kts 39°
2026-04-29 02:26 39.78204 -7.62073 36858 ft 493 kts 39°
2026-04-29 02:26 39.83494 -7.56379 36845 ft 493 kts 39°
2026-04-29 02:27 39.88782 -7.50676 36861 ft 493 kts 40°
2026-04-29 02:27 39.94081 -7.44948 36863 ft 494 kts 40°
2026-04-29 02:28 39.99331 -7.39262 36865 ft 494 kts 40°
2026-04-29 02:28 40.04628 -7.33513 36842 ft 495 kts 40°
2026-04-29 02:29 40.09929 -7.27748 36861 ft 496 kts 40°
2026-04-29 02:29 40.15237 -7.21964 36860 ft 497 kts 40°
2026-04-29 02:30 40.20543 -7.16168 36859 ft 497 kts 40°
2026-04-29 02:30 40.25870 -7.10337 36860 ft 498 kts 40°
2026-04-29 02:31 40.31151 -7.04546 36862 ft 498 kts 40°
2026-04-29 02:31 40.36465 -6.98705 36858 ft 498 kts 40°
2026-04-29 02:32 40.41794 -6.92835 36863 ft 498 kts 40°
2026-04-29 02:32 40.47062 -6.87020 36855 ft 498 kts 40°
2026-04-29 02:33 40.52363 -6.81157 36836 ft 498 kts 40°
2026-04-29 02:33 40.57664 -6.75280 36834 ft 497 kts 40°
2026-04-29 02:34 40.62948 -6.69410 36834 ft 497 kts 40°
2026-04-29 02:34 40.68199 -6.63564 36851 ft 497 kts 40°
2026-04-29 02:35 40.73514 -6.57634 36853 ft 497 kts 40°
2026-04-29 02:35 40.78796 -6.51727 36849 ft 498 kts 40°
2026-04-29 02:36 40.84052 -6.45837 36835 ft 498 kts 40°
2026-04-29 02:36 40.89331 -6.39908 36851 ft 498 kts 40°
2026-04-29 02:37 40.94623 -6.33952 36852 ft 499 kts 40°
2026-04-29 02:37 40.99901 -6.27992 36836 ft 499 kts 41°
2026-04-29 02:38 41.05055 -6.21904 36851 ft 499 kts 43°
2026-04-29 02:38 41.10188 -6.15709 36852 ft 499 kts 43°
2026-04-29 02:39 41.15336 -6.09512 36836 ft 499 kts 42°
2026-04-29 02:39 41.20495 -6.03320 36837 ft 500 kts 42°
2026-04-29 02:40 41.25649 -5.97125 36857 ft 500 kts 42°
2026-04-29 02:40 41.30807 -5.90910 36856 ft 500 kts 42°
2026-04-29 02:41 41.35957 -5.84690 36855 ft 500 kts 42°
2026-04-29 02:41 41.41073 -5.78495 36837 ft 500 kts 42°
2026-04-29 02:42 41.46215 -5.72256 36836 ft 500 kts 42°
2026-04-29 02:42 41.51482 -5.66206 36832 ft 500 kts 35°
2026-04-29 02:43 41.57416 -5.61413 36841 ft 498 kts 24°
2026-04-29 02:43 41.63779 -5.57767 36840 ft 498 kts 21°
2026-04-29 02:44 41.70197 -5.54248 36868 ft 498 kts 21°
2026-04-29 02:44 41.76602 -5.50679 36854 ft 499 kts 21°
2026-04-29 02:45 41.82995 -5.47062 36856 ft 499 kts 21°
2026-04-29 02:45 41.89396 -5.43419 36852 ft 499 kts 21°
2026-04-29 02:46 41.95753 -5.39794 36855 ft 500 kts 21°
2026-04-29 02:46 42.02164 -5.36134 36850 ft 501 kts 21°
2026-04-29 02:47 42.08573 -5.32468 36859 ft 501 kts 21°
2026-04-29 02:47 42.14997 -5.28786 36862 ft 501 kts 21°
2026-04-29 02:48 42.21420 -5.25095 36864 ft 502 kts 21°
2026-04-29 02:48 42.27848 -5.21393 36862 ft 502 kts 21°
2026-04-29 02:49 42.34267 -5.17689 36868 ft 502 kts 21°
2026-04-29 02:49 42.40687 -5.13975 36867 ft 501 kts 21°
2026-04-29 02:50 42.47101 -5.10257 36871 ft 501 kts 21°
2026-04-29 02:50 42.53465 -5.06559 36875 ft 500 kts 21°
2026-04-29 02:51 42.59854 -5.02838 36879 ft 499 kts 21°
2026-04-29 02:51 42.66241 -4.99112 36882 ft 499 kts 21°
2026-04-29 02:52 42.72618 -4.95381 36880 ft 498 kts 21°
2026-04-29 02:52 42.78986 -4.91648 36884 ft 497 kts 21°
2026-04-29 02:53 42.84265 -4.88548 36884 ft 497 kts 21°
2026-04-29 02:53 42.90616 -4.84809 36892 ft 496 kts 21°
2026-04-29 02:53 42.93780 -4.82945 36542 ft 490 kts 23°
2026-04-29 02:54 42.96857 -4.81129 36773 ft 477 kts 23°
2026-04-29 02:54 43.02919 -4.77544 36929 ft 475 kts 23°
2026-04-29 02:55 43.09020 -4.73928 36998 ft 480 kts 23°
2026-04-29 02:55 43.15197 -4.70260 37011 ft 485 kts 23°
2026-04-29 02:56 43.21367 -4.66587 37009 ft 488 kts 23°
2026-04-29 02:56 43.27597 -4.62871 36999 ft 487 kts 23°
2026-04-29 02:57 43.33804 -4.59160 36997 ft 485 kts 23°
2026-04-29 02:57 43.39974 -4.55463 36995 ft 482 kts 23°
2026-04-29 02:58 43.46101 -4.51784 36996 ft 479 kts 23°
2026-04-29 02:58 43.52203 -4.48113 36999 ft 478 kts 23°
2026-04-29 02:59 43.58285 -4.44448 37002 ft 477 kts 23°
2026-04-29 02:59 43.64369 -4.40773 37002 ft 477 kts 24°
2026-04-29 03:00 43.70419 -4.37111 37003 ft 478 kts 24°
2026-04-29 03:00 43.76521 -4.33409 37003 ft 479 kts 24°
2026-04-29 03:01 43.82628 -4.29694 37003 ft 480 kts 24°
2026-04-29 03:01 43.88768 -4.25952 37002 ft 481 kts 24°
2026-04-29 03:02 43.94899 -4.22207 37002 ft 482 kts 24°
2026-04-29 03:02 44.01031 -4.18452 37001 ft 482 kts 24°
2026-04-29 03:03 44.07123 -4.14714 37001 ft 482 kts 24°
2026-04-29 03:03 44.13253 -4.10944 37001 ft 482 kts 24°
2026-04-29 03:04 44.19378 -4.07167 37001 ft 481 kts 24°
2026-04-29 03:04 44.25498 -4.03386 37001 ft 481 kts 24°
2026-04-29 03:05 44.31606 -3.99559 37000 ft 480 kts 26°
2026-04-29 03:05 44.37305 -3.94714 37007 ft 480 kts 35°
2026-04-29 03:06 44.42756 -3.89324 37001 ft 480 kts 35°
2026-04-29 03:06 44.48213 -3.83904 37001 ft 480 kts 35°
2026-04-29 03:07 44.53682 -3.78519 37002 ft 480 kts 35°
2026-04-29 03:07 44.59159 -3.73144 37002 ft 480 kts 35°
2026-04-29 03:08 44.64601 -3.67796 37002 ft 480 kts 35°
2026-04-29 03:08 44.70075 -3.62403 37002 ft 480 kts 35°
2026-04-29 03:09 44.75556 -3.56987 37001 ft 481 kts 35°
2026-04-29 03:09 44.80996 -3.51599 37001 ft 481 kts 35°
2026-04-29 03:10 44.86468 -3.46167 37001 ft 481 kts 35°
2026-04-29 03:10 44.91931 -3.40730 37001 ft 481 kts 35°
2026-04-29 03:11 44.97404 -3.35271 37001 ft 481 kts 35°
2026-04-29 03:11 45.02874 -3.29801 37001 ft 481 kts 35°
2026-04-29 03:12 45.08287 -3.24376 37001 ft 481 kts 35°
2026-04-29 03:12 45.13745 -3.18893 37001 ft 481 kts 35°
2026-04-29 03:13 45.19197 -3.13402 37001 ft 481 kts 35°
2026-04-29 03:13 45.24652 -3.07896 37001 ft 480 kts 35°
2026-04-29 03:14 45.30071 -3.02413 37001 ft 480 kts 35°
2026-04-29 03:14 45.35523 -2.96883 37001 ft 480 kts 36°
2026-04-29 03:15 45.40965 -2.91348 37001 ft 480 kts 36°
2026-04-29 03:15 45.46406 -2.85803 37001 ft 480 kts 36°
2026-04-29 03:16 45.51837 -2.80254 37001 ft 480 kts 36°
2026-04-29 03:16 45.57235 -2.74725 37001 ft 480 kts 36°
2026-04-29 03:17 45.62667 -2.69148 37001 ft 480 kts 36°
2026-04-29 03:17 45.68097 -2.63560 37001 ft 480 kts 36°
2026-04-29 03:18 45.73523 -2.57961 37001 ft 480 kts 36°
2026-04-29 03:18 45.78923 -2.52376 37001 ft 480 kts 36°
2026-04-29 03:19 45.84345 -2.46755 37001 ft 480 kts 36°
2026-04-29 03:19 45.89764 -2.41123 37001 ft 480 kts 36°
2026-04-29 03:20 45.95173 -2.35486 37001 ft 480 kts 36°
2026-04-29 03:20 46.00551 -2.29869 37001 ft 480 kts 36°
2026-04-29 03:21 46.05963 -2.24209 37001 ft 480 kts 35°
2026-04-29 03:21 46.11521 -2.18846 37002 ft 480 kts 33°
2026-04-29 03:22 46.17152 -2.13637 37001 ft 480 kts 33°
2026-04-29 03:22 46.22765 -2.08383 37001 ft 480 kts 33°
2026-04-29 03:23 46.28321 -2.03114 37001 ft 480 kts 33°
2026-04-29 03:23 46.33906 -1.97785 37001 ft 480 kts 33°
2026-04-29 03:24 46.39485 -1.92449 37001 ft 480 kts 33°
2026-04-29 03:24 46.45072 -1.87096 37001 ft 480 kts 33°
2026-04-29 03:25 46.50645 -1.81744 37001 ft 480 kts 33°
2026-04-29 03:25 46.56218 -1.76378 37002 ft 480 kts 33°
2026-04-29 03:26 46.61752 -1.71037 37002 ft 480 kts 33°
2026-04-29 03:26 46.67330 -1.65639 37001 ft 480 kts 33°
2026-04-29 03:27 46.72899 -1.60237 37001 ft 480 kts 33°
2026-04-29 03:27 46.78465 -1.54823 37001 ft 480 kts 33°
2026-04-29 03:28 46.83998 -1.49429 37001 ft 480 kts 33°
2026-04-29 03:28 46.89559 -1.43993 37001 ft 480 kts 34°
2026-04-29 03:29 46.95095 -1.38519 37000 ft 480 kts 37°
2026-04-29 03:29 47.00082 -1.32029 36997 ft 480 kts 47°
2026-04-29 03:30 47.04523 -1.24719 37002 ft 480 kts 49°
2026-04-29 03:30 47.08938 -1.17355 37001 ft 480 kts 49°
2026-04-29 03:31 47.15577 -1.06399 37001 ft 480 kts 48°
2026-04-29 03:31 47.20027 -0.99070 37002 ft 481 kts 48°
2026-04-29 03:32 47.24478 -0.91717 37002 ft 481 kts 48°
2026-04-29 03:32 47.28921 -0.84351 37001 ft 481 kts 48°
2026-04-29 03:33 47.33355 -0.76980 37001 ft 481 kts 49°
2026-04-29 03:33 47.37790 -0.69589 37001 ft 481 kts 49°
2026-04-29 03:34 47.42221 -0.62196 37001 ft 480 kts 47°
2026-04-29 03:34 47.47109 -0.55581 37000 ft 480 kts 37°
2026-04-29 03:35 47.52483 -0.49706 37007 ft 480 kts 36°
2026-04-29 03:35 47.57872 -0.43865 37001 ft 480 kts 36°
2026-04-29 03:36 47.63247 -0.37961 37002 ft 480 kts 37°
2026-04-29 03:36 47.68602 -0.32019 37002 ft 480 kts 37°
2026-04-29 03:37 47.73954 -0.26056 37001 ft 480 kts 37°
2026-04-29 03:37 47.79303 -0.20082 37001 ft 480 kts 37°
2026-04-29 03:38 47.84612 -0.14140 37001 ft 480 kts 37°
2026-04-29 03:38 47.89953 -0.08147 37001 ft 480 kts 37°
2026-04-29 03:39 47.95294 -0.02139 37001 ft 480 kts 37°
2026-04-29 03:39 48.00625 0.03875 37001 ft 480 kts 37°
2026-04-29 03:40 48.05953 0.09902 37001 ft 480 kts 37°
2026-04-29 03:40 48.11277 0.15940 37002 ft 480 kts 37°
2026-04-29 03:41 48.15704 0.20972 37002 ft 480 kts 37°
2026-04-29 03:41 48.21895 0.28029 37002 ft 480 kts 37°
2026-04-29 03:42 48.26325 0.33092 37001 ft 480 kts 37°
2026-04-29 03:42 48.31642 0.39184 37001 ft 480 kts 37°
2026-04-29 03:43 48.36956 0.45289 37001 ft 480 kts 37°
2026-04-29 03:43 48.42266 0.51407 37001 ft 480 kts 37°
2026-04-29 03:44 48.47544 0.57503 37001 ft 480 kts 37°
2026-04-29 03:44 48.52843 0.63640 37002 ft 480 kts 37°
2026-04-29 03:45 48.58149 0.69803 37001 ft 480 kts 37°
2026-04-29 03:45 48.63447 0.75972 37001 ft 480 kts 38°
2026-04-29 03:46 48.68741 0.82155 37001 ft 480 kts 38°
2026-04-29 03:46 48.73997 0.88307 37002 ft 480 kts 38°
2026-04-29 03:47 48.79311 0.94463 37001 ft 480 kts 37°
2026-04-29 03:47 48.84638 1.00580 37001 ft 480 kts 37°
2026-04-29 03:48 48.89973 1.06734 37001 ft 480 kts 37°
2026-04-29 03:48 48.95286 1.12893 37001 ft 480 kts 37°
2026-04-29 03:49 49.00599 1.19068 37001 ft 480 kts 37°
2026-04-29 03:49 49.05736 1.25579 37005 ft 480 kts 43°
2026-04-29 03:50 49.10540 1.32595 37001 ft 480 kts 44°
2026-04-29 03:50 49.15360 1.39670 37001 ft 480 kts 44°
2026-04-29 03:51 49.20199 1.46707 37002 ft 480 kts 43°
2026-04-29 03:51 49.25046 1.53758 37001 ft 480 kts 44°
2026-04-29 03:52 49.29862 1.60778 37001 ft 480 kts 44°
2026-04-29 03:52 49.34706 1.67840 37001 ft 480 kts 44°
2026-04-29 03:53 49.39545 1.74918 37002 ft 480 kts 44°
2026-04-29 03:53 49.44382 1.82015 37001 ft 480 kts 44°
2026-04-29 03:54 49.49211 1.89121 37002 ft 480 kts 44°
2026-04-29 03:54 49.54031 1.96232 37001 ft 480 kts 44°
2026-04-29 03:55 49.58855 2.03367 37001 ft 480 kts 44°
2026-04-29 03:55 49.63670 2.10506 37001 ft 480 kts 44°
2026-04-29 03:56 49.68460 2.17632 37002 ft 480 kts 44°
2026-04-29 03:56 49.73264 2.24799 37001 ft 480 kts 44°
2026-04-29 03:57 49.78070 2.31989 37001 ft 480 kts 44°
2026-04-29 03:57 49.82838 2.39145 37001 ft 480 kts 44°
2026-04-29 03:58 49.87635 2.46364 37002 ft 480 kts 44°
2026-04-29 03:58 49.92431 2.53602 37001 ft 480 kts 44°
2026-04-29 03:59 49.97217 2.60850 37001 ft 480 kts 44°
2026-04-29 03:59 50.01959 2.68079 37001 ft 480 kts 44°
2026-04-29 04:00 50.06724 2.75372 37001 ft 480 kts 44°
2026-04-29 04:00 50.11487 2.82680 37002 ft 480 kts 44°
2026-04-29 04:01 50.16243 2.89996 37002 ft 480 kts 45°
2026-04-29 04:01 50.20973 2.97295 37002 ft 480 kts 45°
2026-04-29 04:02 50.25717 3.04636 37002 ft 480 kts 45°
2026-04-29 04:02 50.30467 3.12009 37002 ft 480 kts 45°
2026-04-29 04:03 50.35200 3.19375 37002 ft 480 kts 45°
2026-04-29 04:03 50.40119 3.26368 37003 ft 480 kts 37°
2026-04-29 04:04 50.45742 3.31865 36991 ft 470 kts 26°
2026-04-29 04:04 50.48687 3.34098 36984 ft 459 kts 25°
2026-04-29 04:04 50.51517 3.36223 36989 ft 456 kts 24°
2026-04-29 04:05 50.57324 3.40261 37005 ft 457 kts 23°
2026-04-29 04:05 50.63171 3.44230 37007 ft 458 kts 23°
2026-04-29 04:06 50.69030 3.48246 37006 ft 459 kts 23°
2026-04-29 04:06 50.74901 3.52303 37003 ft 460 kts 24°
2026-04-29 04:07 50.80765 3.56370 37001 ft 460 kts 24°
2026-04-29 04:07 50.86594 3.60419 37001 ft 460 kts 23°
2026-04-29 04:08 50.92690 3.63383 37003 ft 458 kts 11°
2026-04-29 04:08 50.99029 3.64383 37003 ft 457 kts
2026-04-29 04:09 51.05393 3.64682 37000 ft 457 kts
2026-04-29 04:09 51.11752 3.65027 37001 ft 456 kts
2026-04-29 04:10 51.18062 3.65437 37001 ft 456 kts
2026-04-29 04:10 51.24414 3.65811 36999 ft 456 kts
2026-04-29 04:11 51.30767 3.65682 37001 ft 456 kts 358°
2026-04-29 04:11 51.37121 3.65412 37002 ft 456 kts 358°
2026-04-29 04:12 51.43432 3.65181 37002 ft 457 kts 359°
2026-04-29 04:12 51.49792 3.64979 37002 ft 457 kts 359°
2026-04-29 04:13 51.56158 3.64782 37002 ft 458 kts 359°
2026-04-29 04:13 51.62525 3.64581 37002 ft 458 kts 359°
2026-04-29 04:14 51.68868 3.64919 36986 ft 455 kts 15°
2026-04-29 04:14 51.71783 3.66859 37005 ft 454 kts 32°
2026-04-29 04:14 51.74264 3.69999 37006 ft 454 kts 47°
2026-04-29 04:15 51.76161 3.74074 37011 ft 452 kts 58°
2026-04-29 04:15 51.77816 3.78401 37008 ft 454 kts 59°
2026-04-29 04:15 51.81113 3.87144 37010 ft 457 kts 58°
2026-04-29 04:16 51.84476 3.95838 37010 ft 460 kts 58°
2026-04-29 04:16 51.87906 4.04606 37007 ft 462 kts 58°
2026-04-29 04:17 51.91342 4.13429 36995 ft 459 kts 59°
2026-04-29 04:17 51.92626 4.18109 36991 ft 453 kts 76°
2026-04-29 04:17 51.92994 4.23131 36999 ft 450 kts 94°
2026-04-29 04:18 51.92455 4.28089 37003 ft 448 kts 110°
2026-04-29 04:18 51.91104 4.32623 37011 ft 447 kts 124°
2026-04-29 04:18 51.89166 4.36556 37003 ft 447 kts 136°
2026-04-29 04:18 51.86682 4.39540 36996 ft 444 kts 153°
2026-04-29 04:19 51.83779 4.41156 36996 ft 443 kts 173°
2026-04-29 04:19 51.80756 4.41221 37012 ft 442 kts 188°
2026-04-29 04:19 51.74898 4.38247 36997 ft 445 kts 211°
2026-04-29 04:20 51.72453 4.35210 37025 ft 444 kts 223°
2026-04-29 04:20 51.70196 4.31755 37000 ft 447 kts 224°
2026-04-29 04:20 51.65674 4.24809 37010 ft 450 kts 223°
2026-04-29 04:21 51.61000 4.18043 37007 ft 452 kts 221°
2026-04-29 04:21 51.56352 4.11348 36987 ft 450 kts 227°
2026-04-29 04:22 51.54574 4.07237 37003 ft 447 kts 246°
2026-04-29 04:22 51.53683 4.02480 37000 ft 446 kts 263°
2026-04-29 04:22 51.53682 3.97522 37006 ft 445 kts 279°
2026-04-29 04:22 51.54488 3.92732 37009 ft 445 kts 293°
2026-04-29 04:23 51.56019 3.88408 37003 ft 445 kts 308°
2026-04-29 04:23 51.58186 3.84877 36994 ft 445 kts 323°
2026-04-29 04:23 51.60889 3.82437 36993 ft 445 kts 340°
2026-04-29 04:23 51.63868 3.81377 37004 ft 446 kts 357°
2026-04-29 04:24 51.66947 3.81750 37008 ft 446 kts 13°
2026-04-29 04:24 51.69900 3.83339 37008 ft 448 kts 26°
2026-04-29 04:24 51.72513 3.86064 36994 ft 447 kts 41°
2026-04-29 04:24 51.74823 3.89421 37012 ft 448 kts 43°
2026-04-29 04:25 51.79447 3.96266 37012 ft 453 kts 42°
2026-04-29 04:25 51.84170 4.03090 37010 ft 457 kts 41°
2026-04-29 04:26 51.88941 4.09908 37005 ft 458 kts 41°
2026-04-29 04:26 51.93416 4.17176 36985 ft 454 kts 59°
2026-04-29 04:27 51.94641 4.21856 36999 ft 452 kts 78°
2026-04-29 04:27 51.94885 4.26897 36999 ft 449 kts 96°
2026-04-29 04:27 51.94199 4.31805 37008 ft 447 kts 112°
2026-04-29 04:27 51.92715 4.36209 37008 ft 445 kts 128°
2026-04-29 04:28 51.90596 4.39767 37002 ft 444 kts 143°
2026-04-29 04:28 51.87941 4.42270 36993 ft 443 kts 160°
2026-04-29 04:28 51.84954 4.43422 36994 ft 442 kts 177°
2026-04-29 04:28 51.81892 4.43074 36999 ft 442 kts 194°
2026-04-29 04:29 51.79008 4.41434 37009 ft 442 kts 207°
2026-04-29 04:29 51.76470 4.38631 36998 ft 441 kts 222°
2026-04-29 04:29 51.71936 4.31886 37009 ft 446 kts 223°
2026-04-29 04:30 51.68123 4.26247 37009 ft 449 kts 222°
2026-04-29 04:31 51.61097 4.16163 37006 ft 453 kts 221°
2026-04-29 04:31 51.56550 4.09190 36985 ft 449 kts 236°
2026-04-29 04:31 51.55147 4.04740 37004 ft 447 kts 254°
2026-04-29 04:32 51.54687 3.99825 37000 ft 446 kts 271°
2026-04-29 04:32 51.55143 3.94928 37008 ft 445 kts 288°
2026-04-29 04:32 51.56412 3.90395 37007 ft 445 kts 303°
2026-04-29 04:32 51.58373 3.86571 37001 ft 445 kts 318°
2026-04-29 04:33 51.60914 3.83749 36993 ft 445 kts 335°
2026-04-29 04:33 51.63859 3.82234 36997 ft 445 kts 352°
2026-04-29 04:33 51.65969 3.82057 37003 ft 446 kts
2026-04-29 04:33 51.69023 3.83052 37015 ft 446 kts 20°
2026-04-29 04:34 51.71781 3.85211 36995 ft 448 kts 36°
2026-04-29 04:34 51.76456 3.91815 37006 ft 450 kts 43°
2026-04-29 04:35 51.81119 3.98688 37010 ft 454 kts 42°
2026-04-29 04:35 51.85843 4.05479 37010 ft 457 kts 41°
2026-04-29 04:36 51.90623 4.12318 37003 ft 458 kts 41°
2026-04-29 04:36 51.92880 4.15932 36982 ft 455 kts 54°
2026-04-29 04:36 51.94375 4.20363 37002 ft 453 kts 72°
2026-04-29 04:36 51.94941 4.25351 36804 ft 447 kts 90°
2026-04-29 04:37 51.94548 4.30311 36374 ft 442 kts 108°
2026-04-29 04:37 51.93291 4.34834 35906 ft 438 kts 124°
2026-04-29 04:37 51.91369 4.38573 35423 ft 434 kts 139°
2026-04-29 04:37 51.88935 4.41414 34937 ft 431 kts 154°
2026-04-29 04:38 51.86127 4.43049 34436 ft 427 kts 171°
2026-04-29 04:38 51.83201 4.43287 33985 ft 423 kts 187°
2026-04-29 04:38 51.80349 4.42227 33549 ft 419 kts 200°
2026-04-29 04:38 51.77766 4.40206 33108 ft 416 kts 215°
2026-04-29 04:39 51.75530 4.37236 32642 ft 412 kts 222°
2026-04-29 04:39 51.73440 4.34136 32176 ft 410 kts 223°
2026-04-29 04:39 51.71359 4.31019 31748 ft 408 kts 223°
2026-04-29 04:39 51.69276 4.27937 31344 ft 405 kts 222°
2026-04-29 04:40 51.67178 4.24882 30937 ft 401 kts 222°
2026-04-29 04:40 51.65125 4.21926 30549 ft 399 kts 221°
2026-04-29 04:40 51.63047 4.18951 30137 ft 396 kts 221°
2026-04-29 04:40 51.61011 4.16044 29730 ft 393 kts 221°
2026-04-29 04:41 51.58964 4.13124 29316 ft 391 kts 221°
2026-04-29 04:41 51.57059 4.10096 28832 ft 386 kts 234°
2026-04-29 04:41 51.55763 4.06309 28323 ft 386 kts 250°
2026-04-29 04:41 51.55113 4.02144 27899 ft 383 kts 263°
2026-04-29 04:42 51.55044 3.97874 27501 ft 380 kts 275°
2026-04-29 04:42 51.55566 3.93775 27092 ft 378 kts 289°
2026-04-29 04:42 51.56707 3.89979 26666 ft 376 kts 304°
2026-04-29 04:42 51.58407 3.86798 26247 ft 375 kts 319°
2026-04-29 04:43 51.60525 3.84439 25843 ft 373 kts 333°
2026-04-29 04:43 51.62961 3.82981 25418 ft 371 kts 347°
2026-04-29 04:43 51.65495 3.82527 24999 ft 369 kts
2026-04-29 04:43 51.68034 3.83051 24610 ft 367 kts 13°
2026-04-29 04:44 51.70446 3.84280 24212 ft 365 kts 23°
2026-04-29 04:44 51.72615 3.86366 23773 ft 360 kts 41°
2026-04-29 04:44 51.74483 3.89078 23290 ft 360 kts 42°
2026-04-29 04:44 51.76300 3.91738 22741 ft 350 kts 42°
2026-04-29 04:45 51.78110 3.94369 21838 ft 346 kts 42°
2026-04-29 04:45 51.79896 3.96947 20900 ft 345 kts 41°
2026-04-29 04:45 51.81666 3.99488 20013 ft 342 kts 41°
2026-04-29 04:45 51.83430 4.02015 19179 ft 337 kts 41°
2026-04-29 04:46 51.85171 4.04507 18337 ft 332 kts 41°
2026-04-29 04:46 51.86890 4.06966 17518 ft 327 kts 41°
2026-04-29 04:46 51.88587 4.09398 16685 ft 323 kts 41°
2026-04-29 04:46 51.90263 4.11802 15853 ft 319 kts 41°
2026-04-29 04:47 51.91923 4.14160 15031 ft 316 kts 40°
2026-04-29 04:47 51.93604 4.16411 14224 ft 312 kts 39°
2026-04-29 04:47 51.95286 4.18613 13418 ft 308 kts 39°
2026-04-29 04:47 51.96944 4.20780 12630 ft 304 kts 39°
2026-04-29 04:48 51.98584 4.22930 11843 ft 301 kts 39°
2026-04-29 04:48 52.00186 4.25037 11075 ft 297 kts 39°
2026-04-29 04:48 52.01786 4.27150 10282 ft 294 kts 39°
2026-04-29 04:48 52.03363 4.29237 9513 ft 291 kts 39°
2026-04-29 04:49 52.04929 4.31312 8764 ft 287 kts 39°
2026-04-29 04:49 52.06453 4.33336 8013 ft 284 kts 39°
2026-04-29 04:49 52.07964 4.35344 7283 ft 281 kts 39°
2026-04-29 04:49 52.09469 4.37346 6535 ft 278 kts 39°
2026-04-29 04:50 52.10970 4.39345 5791 ft 275 kts 39°
2026-04-29 04:50 52.12428 4.41289 5083 ft 273 kts 39°
2026-04-29 04:50 52.13893 4.43244 4603 ft 269 kts 39°
2026-04-29 04:50 52.15283 4.45100 4244 ft 262 kts 39°
2026-04-29 04:51 52.16683 4.46970 3847 ft 260 kts 39°
2026-04-29 04:51 52.18073 4.48830 3553 ft 260 kts 39°
2026-04-29 04:51 52.19467 4.50696 3256 ft 258 kts 39°
2026-04-29 04:51 52.20746 4.52683 2943 ft 254 kts 51°
2026-04-29 04:52 52.21743 4.55020 2635 ft 247 kts 58°
2026-04-29 04:52 52.22607 4.57325 2309 ft 233 kts 58°
2026-04-29 04:52 52.23426 4.59477 2039 ft 213 kts 58°
2026-04-29 04:52 52.24192 4.61468 1721 ft 198 kts 58°
2026-04-29 04:53 52.24886 4.63270 1462 ft 179 kts 58°
2026-04-29 04:53 52.25508 4.64885 1263 ft 157 kts 58°
2026-04-29 04:53 52.26075 4.66361 1055 ft 152 kts 58°
2026-04-29 04:53 52.26642 4.67834 847 ft 153 kts 58°
2026-04-29 04:54 52.27212 4.69315 648 ft 154 kts 58°
2026-04-29 04:54 52.27778 4.70776 425 ft 154 kts 58°
2026-04-29 04:54 52.28348 4.72249 244 ft 151 kts 58°
2026-04-29 04:54 52.28901 4.73689 44 ft 148 kts 58°
2026-04-29 04:55 52.29415 4.75035 3 ft 124 kts 58°
2026-04-29 04:55 52.29779 4.75984 2 ft 71 kts 58°
2026-04-29 04:55 52.29943 4.76413 2 ft 21 kts 58°
2026-04-29 04:55 52.30056 4.76565 3 ft 21 kts 27°
2026-04-29 04:56 52.30188 4.76677 4 ft 21 kts 28°
2026-04-29 04:56 52.30311 4.76811 4 ft 21 kts 54°
2026-04-29 04:56 52.30387 4.77021 4 ft 21 kts 59°
2026-04-29 04:56 52.30466 4.77228 4 ft 21 kts 58°
2026-04-29 04:57 52.30543 4.77433 4 ft 21 kts 58°
2026-04-29 04:57 52.30652 4.77585 4 ft 21 kts
2026-04-29 04:57 52.30801 4.77602 4 ft 21 kts
2026-04-29 04:57 52.30950 4.77616 4 ft 21 kts
2026-04-29 04:58 52.31099 4.77630 4 ft 21 kts
2026-04-29 04:58 52.31246 4.77644 4 ft 21 kts
2026-04-29 04:58 52.31395 4.77656 4 ft 21 kts 357°
2026-04-29 04:58 52.31522 4.77542 4 ft 21 kts 315°
2026-04-29 04:59 52.31576 4.77326 4 ft 21 kts 269°
2026-04-29 04:59 52.31568 4.77083 4 ft 21 kts 267°
2026-04-29 04:59 52.31560 4.76840 4 ft 21 kts 266°
2026-04-29 04:59 52.31552 4.76597 4 ft 21 kts 266°
2026-04-29 05:00 52.31543 4.76358 4 ft 21 kts 266°
2026-04-29 05:00 52.31535 4.76115 4 ft 21 kts 266°
2026-04-29 05:00 52.31526 4.75872 4 ft 21 kts 266°
2026-04-29 05:00 52.31519 4.75643 4 ft 9 kts 267°
2026-04-29 05:01 52.31515 4.75539 4 ft 9 kts 267°
2026-04-29 05:01 52.31487 4.75451 4 ft 9 kts 205°
2026-04-29 05:01 52.31423 4.75443 4 ft 7 kts 180°
2026-04-29 05:01 52.31375 4.75444 4 ft 5 kts 179°
2026-04-29 05:02 52.31359 4.75449 4 ft 2 kts 156°
2026-04-29 05:02 52.31352 4.75477 4 ft 3 kts 102°
2026-04-29 05:02 52.31352 4.75514 4 ft 4 kts 89°
2026-04-29 05:02 52.31353 4.75561 4 ft 4 kts 88°
2026-04-29 05:03 52.31354 4.75589 4 ft 2 kts 88°
2026-04-29 05:03 52.31354 4.75590 4 ft 0 kts 88°